GFSSE_prec_cthk_048.txt.gz
RH
38 31 30 28 30 32 29 27 26 29 29 29 30 30 29 26 23 19 17 30 30 24 16 10 16 19 18 28 30 31 29 27 28 27 27 21 12 11 12 13 13 14 18
35 30 30 30 29 32 32 30 28 29 29 29 28 26 26 23 20 22 27 33 28 18 16 11 11 15 15 21 27 28 27 26 26 23 17 13 12 14 15 15 15 17 21
39 32 32 31 32 34 35 34 32 27 24 23 23 22 21 20 18 24 31 39 29 25 19 12 10 10 12 13 16 19 20 20 19 18 15 18 20 18 20 20 21 20 21
38 32 31 33 33 34 36 36 34 32 28 24 23 19 18 17 21 27 32 36 31 26 17 11 10 10 11 12 14 16 17 17 19 19 19 20 24 25 28 31 31 31 34
35 32 32 34 37 37 37 38 36 34 32 26 20 18 16 15 25 28 31 30 27 21 18 15 16 17 17 17 19 21 23 24 24 25 24 24 24 30 33 32 36 40 44
36 33 34 37 36 39 39 38 36 35 33 29 23 17 15 16 23 23 27 26 22 21 18 17 18 19 20 19 20 23 25 26 27 26 25 23 25 34 36 34 37 37 38
37 34 35 35 36 40 39 40 39 36 34 30 29 21 17 16 17 20 23 24 24 23 21 21 22 23 23 24 25 25 26 27 27 26 26 25 26 28 30 32 32 32 35
40 36 35 36 38 43 41 42 40 39 37 33 30 25 20 19 19 19 21 22 23 23 22 23 24 25 25 25 26 26 28 29 29 29 27 27 25 25 26 25 26 26 27
43 38 35 36 42 44 43 41 41 40 39 36 31 27 24 23 21 21 22 22 24 24 25 26 26 26 27 26 27 27 28 28 27 25 23 22 21 26 28 27 24 23 22
41 41 40 39 40 42 42 42 41 40 40 39 34 29 26 25 24 24 24 26 27 26 27 29 29 30 30 29 29 30 30 31 31 30 29 27 30 32 28 24 23 21 19
46 44 42 41 38 36 37 39 40 39 38 39 36 32 27 28 28 27 27 27 28 30 32 31 30 30 30 30 30 30 30 30 31 30 29 31 36 36 31 25 24 21 17
46 44 43 39 36 35 36 35 33 35 35 36 34 32 31 30 31 33 32 30 29 31 34 37 35 33 33 33 33 32 32 33 34 34 32 34 38 38 33 30 27 22 20
45 42 42 39 36 34 32 33 32 31 30 31 33 32 33 31 32 33 34 33 35 35 36 37 36 37 37 36 34 35 36 36 34 35 36 37 38 37 35 32 27 25 24
44 42 39 37 35 33 30 28 28 28 28 30 32 33 33 34 33 35 36 35 36 37 38 38 40 41 41 40 39 41 38 35 35 36 38 39 40 40 38 35 32 27 26
44 39 36 35 33 32 31 29 26 26 26 27 28 31 34 35 36 36 38 38 39 40 40 39 40 40 42 44 44 44 45 45 42 37 37 39 41 42 41 40 37 33 28
47 40 37 34 33 31 30 29 26 26 27 27 29 32 34 35 35 37 38 40 42 41 41 43 44 45 47 48 48 48 50 49 48 49 46 41 41 43 44 44 42 39 31
41 42 42 40 35 32 31 31 28 25 27 30 32 33 33 34 33 32 34 36 40 44 46 45 45 45 47 50 52 52 51 52 53 53 54 53 52 47 44 46 46 43 37
36 40 42 40 39 37 35 33 30 28 27 28 31 33 34 33 32 31 31 31 35 40 43 44 46 49 49 51 55 59 54 52 54 54 54 54 57 59 55 49 49 48 44
28 28 32 37 39 41 41 40 36 35 33 31 32 32 33 34 34 33 34 34 36 39 42 43 43 46 48 49 53 57 58 56 53 50 51 53 54 56 58 60 56 54 51
29 29 29 30 31 33 37 37 35 36 34 34 34 35 37 41 48 45 43 45 50 50 46 44 48 50 51 52 56 57 56 58 57 54 51 51 52 55 58 62 65 64 58
30 28 29 30 28 28 28 30 32 30 30 33 38 45 46 48 50 54 48 45 47 48 47 51 53 54 56 59 63 62 63 65 64 63 63 61 58 61 60 63 68 71 72
30 29 29 30 31 30 28 25 27 28 25 24 26 32 36 39 41 39 41 42 41 46 44 48 55 63 65 66 70 73 74 73 72 74 74 73 72 70 69 71 71 73 74
32 31 31 32 31 31 30 26 24 24 23 23 22 21 23 26 28 33 36 35 32 33 36 37 45 56 56 65 72 77 74 72 73 74 75 75 76 76 75 75 79 81 82
30 28 26 25 24 23 23 24 24 23 22 21 21 21 21 21 22 23 26 29 31 35 37 38 39 45 54 59 66 70 72 75 76 72 74 78 79 77 78 80 82 85 88
28 26 23 22 20 20 20 20 19 19 18 18 19 19 20 20 21 23 26 29 40 45 42 41 41 49 54 60 65 68 87 79 77 78 70 75 81 84 84 84 86 88 91
26 24 22 21 21 20 20 19 18 18 17 17 17 17 16 16 17 19 21 25 25 32 37 42 43 47 54 61 66 71 70 67 77 81 77 81 85 81 84 80 88 94 93

GFSSE_prec_cthk_051.txt.gz
RH
35 34 34 29 29 30 29 26 25 26 27 31 30 29 27 23 20 17 30 32 27 19 11 13 19 16 20 25 30 30 30 26 25 25 23 16 11 11 12 12 14 16 25
34 32 34 30 29 30 31 28 26 25 26 25 24 26 24 21 20 23 33 24 17 17 11 11 16 15 21 25 26 25 24 22 22 19 14 12 13 14 15 15 15 20 26
34 33 33 30 28 31 33 31 31 27 24 22 21 19 19 18 21 27 32 25 23 17 10 9 11 13 14 19 21 21 19 18 17 15 15 18 18 20 22 22 21 20 23
34 32 35 29 29 33 33 32 32 32 26 22 20 17 16 16 23 29 30 28 25 17 12 11 11 11 13 14 16 16 16 16 18 18 18 21 23 27 30 31 29 38 42
35 31 33 31 32 33 34 34 33 34 31 25 18 16 15 21 24 27 27 25 22 16 14 15 15 15 16 17 18 19 19 21 21 20 20 21 28 33 32 33 34 38 42
36 31 34 31 33 34 36 36 36 34 32 30 23 18 16 23 24 24 25 24 20 18 17 19 19 19 19 19 20 21 22 23 22 22 22 22 28 35 34 36 36 34 36
34 31 34 36 34 35 37 39 37 38 33 29 27 22 18 18 20 23 24 24 22 21 21 22 23 23 24 24 25 26 26 27 25 25 25 24 27 30 29 29 31 31 35
34 33 36 35 34 37 39 41 40 39 34 30 27 24 22 19 20 22 22 22 23 22 23 24 24 25 26 26 27 28 28 28 28 26 25 23 21 22 23 22 24 24 24
38 33 33 34 35 40 41 42 42 41 38 33 30 24 24 23 22 23 23 24 23 22 24 25 26 27 27 28 29 30 31 32 31 29 29 28 27 29 29 23 21 20 20
42 39 36 35 39 43 44 44 43 42 40 38 33 27 24 25 25 25 25 24 25 26 26 27 28 28 28 28 28 29 31 31 30 29 29 29 32 37 34 27 24 22 19
46 45 42 37 39 41 41 44 43 42 41 39 36 32 27 27 26 27 26 27 27 28 30 32 34 32 31 31 31 32 32 31 30 31 30 31 37 40 35 30 28 24 21
42 42 43 45 44 41 40 40 40 40 39 37 34 32 29 29 29 30 30 30 30 31 32 33 33 35 36 36 36 34 32 33 34 34 34 34 40 40 38 34 31 26 23
48 47 47 46 44 42 39 38 37 37 37 35 33 30 31 31 30 30 33 35 35 35 35 37 39 39 38 38 39 41 39 39 39 37 36 36 41 41 39 36 35 31 27
49 47 47 42 39 37 35 34 33 31 31 31 30 30 30 31 32 32 32 33 35 36 36 38 38 39 41 41 41 43 45 44 45 45 46 44 41 41 40 39 37 36 32
52 49 47 45 42 40 37 32 30 29 28 26 26 27 29 32 33 34 33 34 36 38 39 37 37 39 41 43 43 45 46 47 48 48 50 50 51 50 47 43 41 40 39
53 50 48 44 42 39 37 35 32 31 28 26 26 27 27 31 34 36 36 37 39 41 43 44 44 41 41 42 43 46 46 45 47 49 48 53 52 54 55 55 51 44 42
50 50 46 43 40 37 37 36 35 34 31 27 29 32 33 33 33 33 33 34 36 37 40 41 42 42 43 45 46 48 50 51 47 50 50 52 56 55 57 59 62 59 51
48 46 44 41 39 39 38 38 37 36 33 29 29 32 34 35 35 33 31 30 32 34 35 37 40 42 44 47 50 52 54 55 56 57 54 55 54 53 56 58 61 62 62
37 38 40 41 40 40 40 39 37 38 35 32 31 31 34 35 34 33 32 31 37 40 40 43 44 46 45 45 48 51 53 54 57 57 55 55 56 56 57 58 58 61 63
34 32 32 35 39 41 41 40 40 40 38 35 32 31 32 34 37 37 39 47 45 47 45 44 45 46 45 46 49 51 55 57 58 59 63 67 67 65 64 64 65 65 65
34 32 31 32 33 35 38 36 37 35 34 33 32 32 34 36 42 53 46 53 56 50 45 48 46 44 44 48 54 60 67 65 67 66 69 71 74 78 76 74 75 77 77
35 32 31 31 32 33 33 32 31 30 29 29 29 30 30 33 37 39 45 48 46 44 46 44 42 42 41 47 60 67 66 65 67 69 70 72 73 77 82 82 82 82 83
36 34 32 31 31 30 30 30 29 30 31 29 26 25 25 26 28 32 37 35 37 36 34 32 33 35 39 41 43 61 65 60 63 66 67 66 70 77 77 81 82 82 85
37 36 35 32 31 29 28 28 29 28 28 27 27 25 24 23 23 24 24 25 27 29 30 29 33 35 40 42 44 48 54 57 64 60 61 70 79 75 76 79 83 83 83
38 35 33 33 32 30 28 25 22 21 22 23 23 23 22 22 22 22 23 23 24 27 29 31 41 39 39 39 41 47 53 59 66 64 66 62 64 72 78 77 76 78 86
40 36 32 30 28 26 23 22 22 22 22 21 21 20 19 18 18 18 18 19 19 21 25 30 35 43 49 45 47 53 60 63 62 68 70 67 65 66 74 73 74 78 82

GFSSE_prec_cthk_054.txt.gz
RH
35 36 34 31 30 29 28 26 25 25 26 28 29 27 24 19 18 27 29 26 19 11 10 16 15 17 20 19 26 29 29 24 21 20 16 11 12 13 13 14 18 25 31
34 36 33 31 28 29 29 27 25 22 23 24 24 23 21 19 21 29 22 16 16 11 10 14 13 13 18 23 23 22 20 18 17 15 12 13 15 17 17 16 18 23 27
37 36 34 29 27 29 30 29 27 24 23 21 19 18 17 20 24 28 22 20 15 10 9 11 13 14 19 20 19 19 17 16 15 14 16 18 19 22 24 23 26 31 32
37 35 31 28 27 31 31 32 31 29 25 19 18 17 15 20 25 27 25 23 17 12 12 12 14 15 17 19 19 19 19 19 19 19 20 22 27 30 30 29 35 42 41
36 32 31 28 30 31 32 32 33 31 29 25 18 16 17 21 24 25 24 22 17 14 15 15 15 16 17 18 19 20 21 22 22 21 22 27 30 34 33 33 36 37 41
35 35 35 30 32 31 32 33 34 32 30 27 23 18 23 23 24 25 24 22 19 18 19 20 20 20 21 22 23 24 25 24 23 23 22 26 30 33 35 36 33 34 35
37 36 37 33 33 33 35 36 37 33 31 30 26 22 26 26 25 23 24 22 20 20 21 22 22 22 23 24 25 26 27 27 27 26 24 23 25 28 26 25 27 26 29
39 36 36 34 34 34 37 39 37 36 33 30 27 24 28 29 24 24 23 22 22 21 22 23 24 24 25 26 27 28 29 29 29 28 27 26 25 25 23 21 21 20 20
38 36 36 37 37 36 38 42 41 39 37 33 29 26 24 25 27 26 23 24 25 24 23 22 24 25 25 26 27 27 28 29 28 28 28 28 28 32 28 24 23 21 20
41 36 34 35 36 39 39 43 45 44 41 38 32 28 25 24 24 25 26 26 26 27 28 29 30 29 28 28 29 30 30 29 29 28 28 28 31 37 36 28 26 25 21
44 38 37 37 37 39 41 44 46 46 43 42 36 31 28 26 26 26 26 28 29 28 29 30 30 31 33 33 33 33 34 33 32 32 32 31 35 40 38 31 31 28 25
45 45 42 39 38 41 43 45 46 45 43 41 37 34 30 29 29 29 29 29 29 30 30 31 32 32 33 34 34 35 36 37 37 37 38 36 38 42 42 37 35 33 31
43 42 45 45 43 44 44 43 43 40 42 41 36 34 32 31 29 29 30 31 32 32 34 34 34 34 34 36 38 39 41 43 44 44 44 44 47 54 47 42 38 36 34
46 45 45 45 45 46 46 45 42 40 38 37 35 33 31 31 31 29 29 30 30 29 31 31 32 34 36 37 38 40 42 41 42 44 48 44 46 50 48 49 47 44 40
49 47 47 46 42 41 40 38 37 36 33 31 30 29 29 30 31 33 32 31 31 33 35 35 35 35 36 38 39 39 40 39 39 41 40 41 48 46 51 51 52 52 50
52 50 50 48 46 45 43 40 36 33 31 30 28 25 27 27 30 33 35 35 37 38 39 40 40 41 41 41 41 42 43 42 42 42 44 45 45 50 49 51 52 52 54
55 54 51 50 49 46 44 41 38 36 34 32 30 28 28 30 32 33 33 34 35 35 35 36 38 40 40 42 44 49 49 49 51 54 53 52 54 52 53 53 52 53 55
57 57 56 54 52 50 46 44 42 41 38 37 34 31 29 32 33 34 34 33 35 34 34 36 40 40 42 45 47 50 50 51 52 55 56 58 59 59 58 59 61 60 59
52 52 54 53 51 48 46 45 44 44 42 40 38 36 33 33 36 35 34 34 37 37 39 46 45 47 47 46 47 46 47 48 51 53 58 64 65 66 67 67 65 65 66
45 45 45 45 43 42 44 44 44 44 41 40 39 38 38 37 36 36 35 37 40 48 52 51 53 51 46 45 44 43 46 47 52 56 62 65 66 72 73 76 74 72 73
45 42 40 38 37 37 38 37 38 37 37 37 36 36 35 34 35 36 37 38 44 49 50 50 50 46 43 47 49 43 42 47 50 59 67 69 69 71 75 76 78 78 76
47 41 38 37 37 36 36 38 39 38 36 35 34 33 32 31 31 31 32 35 40 43 44 47 44 46 41 37 37 39 43 41 38 45 54 59 63 69 70 73 73 78 79
43 42 40 37 36 36 37 37 38 37 34 33 33 35 36 36 36 34 33 32 32 33 35 35 31 32 33 32 34 40 45 45 43 44 48 52 59 63 65 68 74 80 75
42 41 40 39 37 36 35 34 32 31 30 28 28 30 32 33 32 28 27 26 26 26 26 27 30 33 41 36 37 40 42 43 46 47 50 52 60 61 67 70 72 74 74
46 40 38 37 37 36 35 33 31 29 26 25 24 25 26 26 26 26 24 23 23 23 24 26 28 34 34 37 41 42 43 45 46 50 49 56 56 59 62 63 64 65 71
46 45 41 38 35 33 33 32 31 29 27 25 23 22 21 21 21 21 20 19 19 19 20 21 24 29 32 34 40 45 49 52 55 58 57 54 52 49 48 48 53 51 56

GFSSE_prec_cthk_057.txt.gz
RH
37 36 36 34 31 28 26 27 27 26 26 27 28 26 21 19 25 28 25 16 11 10 14 15 25 30 25 22 22 27 24 19 16 13 11 12 13 14 15 19 23 26 23
37 37 36 34 31 29 28 25 24 24 24 25 23 22 19 21 28 20 16 15 10 10 12 14 12 14 17 20 21 19 16 15 14 13 15 17 19 19 18 20 24 29 29
40 39 34 29 29 28 28 27 24 22 22 21 19 18 19 23 26 21 20 15 11 10 12 13 13 16 19 19 18 17 16 16 16 18 20 22 25 27 25 33 38 34 34
41 36 31 29 28 29 30 29 28 26 23 18 17 17 20 23 27 24 21 16 12 12 12 13 15 17 19 19 19 18 19 20 20 20 24 29 31 30 31 36 39 41 35
42 38 32 29 28 30 31 32 31 29 26 20 17 17 21 22 24 24 22 17 15 15 15 15 16 17 18 19 20 21 22 22 21 21 26 29 32 34 34 35 33 35 39
44 41 36 32 31 32 32 34 33 31 27 24 19 20 21 23 25 25 21 19 18 18 19 19 19 20 21 21 23 23 23 23 23 22 24 27 29 30 28 27 25 26 30
45 41 37 35 34 31 33 35 35 32 29 27 24 29 27 25 28 22 20 19 19 19 20 21 22 23 24 25 25 26 26 26 26 25 24 24 28 29 23 23 23 21 20
44 41 38 38 36 33 34 37 38 35 30 29 26 28 34 32 30 22 22 21 20 20 21 22 23 24 24 25 26 26 27 27 26 26 25 26 26 26 25 23 23 21 19
42 45 40 38 38 36 37 39 40 38 34 32 28 26 26 28 32 27 24 23 23 24 26 26 25 25 25 25 26 27 27 27 27 26 26 26 28 30 26 25 24 22 20
44 41 41 39 38 38 39 41 44 42 40 37 32 29 27 26 25 27 27 27 26 25 26 27 29 29 30 30 30 30 30 30 30 29 29 29 32 37 31 28 29 27 24
44 41 42 41 39 38 40 41 45 46 45 41 37 31 29 28 27 26 26 27 28 28 29 29 29 30 30 31 32 33 33 33 33 33 33 34 37 42 42 34 33 31 29
50 45 43 41 39 39 40 43 46 46 45 43 40 37 31 29 29 28 28 28 29 29 29 30 30 30 30 31 32 34 34 35 36 36 36 37 38 45 47 42 41 37 33
55 49 43 40 39 40 40 44 47 46 42 42 40 37 34 32 29 27 28 28 29 29 29 29 30 30 31 31 33 34 35 37 37 36 35 37 39 48 47 45 45 45 43
49 52 49 46 44 42 44 44 46 45 42 40 39 37 35 33 32 30 27 28 28 29 29 29 30 31 33 34 34 35 35 36 38 38 38 38 38 39 45 44 45 47 47
52 46 45 44 44 47 45 47 47 46 42 39 37 34 32 31 31 32 31 30 29 30 31 34 35 35 34 35 37 39 40 41 42 42 41 41 41 41 43 45 47 50 50
54 50 47 48 45 46 47 46 43 41 39 36 33 31 29 29 28 29 32 34 33 34 36 36 37 37 37 39 40 40 42 44 45 44 45 47 47 46 47 49 49 50 52
64 55 53 52 50 49 48 46 45 43 40 36 34 32 31 31 29 31 33 34 35 35 34 34 34 34 37 39 41 44 45 46 46 47 48 50 51 53 56 58 56 56 58
71 62 57 55 54 53 52 49 47 44 41 40 38 36 34 33 32 32 32 34 36 35 34 34 34 35 41 42 44 44 44 44 44 45 46 48 51 54 58 61 61 60 61
72 68 59 57 57 57 56 54 51 47 44 44 42 41 40 37 35 33 34 36 38 36 36 36 38 45 47 48 46 44 43 43 43 44 44 48 53 58 64 67 68 69 69
67 68 65 59 58 59 57 54 51 48 45 44 43 42 42 41 40 37 35 37 39 39 39 41 47 50 50 49 48 44 41 44 45 45 44 48 57 65 68 66 68 68 71
59 58 55 54 52 50 49 46 44 41 41 41 41 41 40 39 39 36 34 35 38 39 40 42 47 47 46 46 48 43 39 34 31 35 41 43 45 52 58 62 62 64 66
58 56 51 46 46 45 43 41 38 37 37 38 38 37 37 36 35 33 32 32 33 34 34 38 41 41 44 46 41 36 32 28 29 35 40 44 43 48 51 55 58 64 65
60 59 57 53 45 42 41 40 38 38 38 40 38 37 37 36 36 36 37 39 40 43 36 35 34 33 33 32 33 36 42 40 36 40 41 42 43 46 50 54 60 62 62
60 57 53 50 50 46 41 39 39 39 37 35 33 31 30 30 31 32 34 35 35 33 31 29 30 30 32 33 34 33 37 38 43 45 47 46 47 46 51 57 60 61 63
57 54 49 47 45 45 44 43 39 36 34 32 30 29 27 25 25 27 28 29 27 25 25 24 25 25 26 31 32 34 34 39 45 51 51 51 55 57 57 55 52 49 50
55 54 49 46 43 42 41 40 38 36 35 33 31 28 26 25 25 25 24 23 22 21 20 20 20 21 23 27 33 32 35 41 44 48 50 54 53 52 50 43 39 39 40

GFSSE_prec_cthk_060.txt.gz
RH
40 41 36 32 31 29 28 28 29 27 27 26 27 24 19 22 26 25 16 12 10 15 23 34 38 32 25 22 23 24 17 13 11 11 13 15 15 15 18 23 25 26 23
44 43 37 33 31 32 30 29 28 25 25 25 23 22 21 25 20 15 14 10 11 13 15 18 23 18 18 21 19 15 13 12 14 16 18 21 21 22 30 32 32 33 35
45 43 35 33 31 35 35 31 26 24 22 20 19 20 22 24 20 19 14 11 11 14 13 13 15 17 19 18 16 15 16 16 18 20 26 30 27 30 36 39 36 32 35
48 42 37 32 31 31 32 29 25 23 20 17 17 21 23 27 23 20 15 12 12 12 14 15 17 18 19 18 17 18 19 19 20 25 33 37 32 31 33 34 35 34 35
51 46 39 31 33 33 31 30 29 26 20 17 18 22 24 29 24 22 17 15 15 14 14 15 16 18 18 19 20 20 20 19 20 27 30 33 33 31 27 26 28 31 35
51 50 42 34 32 32 32 33 32 30 24 19 19 21 24 26 26 21 19 18 18 18 18 18 18 19 20 22 23 23 23 22 23 28 29 29 30 26 24 23 21 22 25
52 51 47 39 36 32 34 35 33 30 27 24 27 27 24 27 28 21 20 19 19 20 20 21 21 22 23 24 24 25 24 24 25 25 30 31 27 23 22 22 21 20 19
56 51 50 40 39 34 35 37 36 33 29 26 29 33 30 30 30 24 23 21 20 21 21 21 21 22 22 24 24 25 24 24 24 24 24 29 24 23 24 24 23 22 19
56 56 50 41 40 37 35 38 39 38 34 30 28 32 34 35 34 27 25 24 23 25 25 25 25 25 26 27 27 28 28 28 29 27 28 31 29 26 26 26 26 24 23
54 56 53 46 43 40 38 39 40 41 40 35 32 29 28 28 27 28 29 29 27 25 25 26 28 28 29 30 31 31 30 31 32 31 32 33 36 41 36 35 32 29 26
56 60 56 51 47 44 44 40 41 44 44 40 36 32 30 29 28 28 29 28 28 28 28 29 28 28 29 30 31 31 32 33 33 33 33 34 37 43 46 42 40 39 36
62 60 57 56 50 47 45 42 42 44 47 44 40 35 33 30 29 28 28 28 28 29 29 29 29 29 30 30 31 31 32 33 34 34 34 34 34 40 49 46 42 42 42
60 59 56 56 53 47 45 46 43 46 48 47 43 38 35 32 30 28 28 28 28 28 28 29 29 29 30 31 31 32 33 34 35 36 37 37 36 37 44 44 41 42 44
66 59 54 51 49 46 45 47 44 46 48 48 44 41 38 36 34 31 28 27 27 27 28 28 29 29 30 30 31 32 34 36 37 38 38 37 37 37 40 43 40 41 43
62 60 58 56 53 48 46 46 46 46 47 48 45 41 38 34 32 31 31 28 28 27 27 29 31 33 33 32 32 34 36 37 39 38 38 38 39 39 40 44 44 46 50
61 63 59 56 55 52 49 47 47 46 50 50 44 39 35 32 31 30 31 32 31 30 31 33 36 36 35 34 35 38 38 39 40 40 40 42 44 46 44 44 46 51 53
60 64 64 54 50 46 45 44 48 50 49 45 42 38 33 31 31 30 31 33 34 33 32 33 34 33 33 34 38 41 41 41 40 41 41 42 42 44 46 48 50 53 56
61 64 71 66 53 51 53 50 49 47 46 45 43 40 37 36 36 35 34 34 34 33 33 34 34 34 34 37 42 44 44 41 41 40 39 39 41 43 43 47 54 61 62
64 64 68 69 61 57 56 55 53 52 50 48 45 43 43 42 40 39 39 37 36 35 36 35 34 35 38 43 47 47 46 46 44 43 42 43 42 43 47 50 53 58 59
63 66 68 68 68 63 59 59 58 56 53 51 48 46 46 45 44 42 40 40 40 39 37 38 38 41 42 46 52 48 48 47 46 44 42 39 37 39 44 48 51 55 58
66 64 67 67 68 69 66 63 61 57 55 53 51 49 48 46 44 42 39 39 38 37 37 39 41 45 49 49 51 45 44 44 41 30 30 32 34 37 40 44 48 52 54
62 61 61 61 62 64 62 59 55 51 48 47 44 44 43 42 41 40 38 36 34 34 34 36 39 43 43 41 44 42 37 33 34 31 38 37 37 40 41 44 47 50 52
64 60 58 61 61 59 58 54 52 50 45 43 42 42 40 39 38 38 37 36 36 37 39 43 45 45 44 39 37 39 43 39 42 39 36 36 38 40 42 44 45 49 51
66 65 63 59 58 58 58 54 48 46 44 41 41 40 38 36 34 33 32 32 33 35 35 37 36 35 35 34 34 34 37 41 40 43 39 35 41 44 45 49 54 55 56
68 64 64 65 62 58 55 56 54 48 43 41 39 36 34 32 31 29 27 25 25 25 27 29 28 26 26 26 27 31 33 38 39 40 40 42 49 47 51 54 54 51 50
66 67 65 61 60 56 52 51 49 49 48 44 38 36 33 31 29 28 26 25 24 24 25 24 22 21 20 20 23 27 32 39 38 40 45 52 55 51 45 45 44 40 39

GFSSE_prec_cthk_063.txt.gz
RH
44 35 31 29 29 28 29 30 31 29 27 26 25 20 22 26 24 15 11 10 21 30 43 44 38 27 21 19 21 14 11 10 13 15 17 16 19 24 26 28 29 29 24
46 38 33 30 29 29 29 30 29 29 27 24 22 28 27 22 15 14 10 11 16 19 30 34 28 18 18 17 12 11 12 15 16 21 24 23 29 32 33 30 30 33 34
47 42 33 31 32 31 30 29 28 25 23 21 21 27 24 19 19 13 11 12 16 16 20 23 17 17 16 14 14 15 16 19 24 28 32 31 31 34 35 33 30 30 32
49 42 37 31 32 33 32 27 23 22 20 17 20 25 25 22 20 14 12 12 13 13 14 16 17 17 16 16 17 17 18 22 26 32 35 33 32 29 28 28 29 32 37
53 45 42 33 31 31 30 27 25 21 18 18 21 25 28 24 22 17 15 15 14 14 15 16 17 18 18 19 19 19 20 22 29 33 35 32 29 24 22 20 23 25 28
57 55 47 42 34 32 30 29 28 26 19 18 21 25 30 26 23 19 18 18 17 17 18 18 18 19 21 22 22 22 21 23 28 31 33 30 28 22 22 21 19 19 21
60 56 47 48 39 33 32 32 30 26 23 22 22 24 27 28 24 20 19 19 19 20 20 21 21 22 22 23 22 22 22 22 27 29 29 30 22 22 21 21 21 19 18
64 59 48 47 47 38 35 33 32 29 26 29 31 29 30 29 29 22 20 20 20 20 20 20 21 22 22 22 23 23 23 24 28 28 28 28 25 24 24 24 23 22 21
69 61 50 48 47 41 40 36 34 31 29 29 36 35 37 33 33 25 24 23 23 24 24 25 25 25 26 26 26 26 26 27 31 29 32 34 31 30 31 32 30 28 25
69 61 57 53 47 40 40 38 37 34 34 31 32 34 35 32 28 28 28 27 26 25 25 25 26 27 28 28 28 29 29 30 33 33 35 32 33 35 35 35 36 35 34
65 62 61 58 50 44 44 42 39 39 38 36 33 32 31 36 30 28 28 28 28 28 28 28 28 28 29 29 29 29 30 33 33 34 35 34 33 34 36 39 38 37 38
66 68 62 60 56 52 49 45 40 41 40 42 39 33 36 38 37 35 28 28 28 28 29 29 29 29 29 31 31 30 31 34 34 34 34 35 35 34 36 41 40 36 38
68 68 64 63 60 56 55 50 43 42 44 45 47 44 40 35 30 29 29 27 27 28 27 28 28 29 32 30 30 29 29 30 32 34 35 35 34 32 33 37 40 37 38
69 65 64 67 63 58 56 54 47 44 44 50 48 48 45 40 34 34 32 32 31 32 31 34 33 33 31 28 29 29 31 33 34 37 36 35 34 32 33 34 37 37 38
71 69 67 61 58 56 54 54 52 46 50 51 53 49 48 44 38 34 34 31 31 31 31 31 32 33 35 35 35 33 34 37 37 36 35 35 36 36 38 37 40 40 41
70 71 70 67 62 56 54 54 54 52 51 51 52 51 48 45 41 36 36 34 32 30 32 33 34 37 38 37 35 34 35 38 38 38 38 38 37 38 40 39 38 37 42
60 65 67 69 65 62 58 56 55 51 52 51 55 55 49 45 41 38 36 35 35 34 33 34 35 36 37 36 35 35 38 39 42 41 38 37 37 37 40 40 41 41 43
54 56 58 59 63 64 60 59 54 50 49 54 58 54 47 45 40 40 41 41 40 38 36 36 37 37 35 34 35 37 41 44 46 45 44 43 42 41 40 40 41 41 44
56 56 53 56 60 62 61 54 51 52 52 54 55 54 50 48 44 41 44 44 43 42 41 39 39 37 36 37 39 42 45 45 49 50 47 47 45 42 38 40 38 41 45
59 59 57 58 65 67 68 69 53 51 51 54 56 55 54 53 51 48 47 46 45 43 43 43 42 42 43 42 46 51 52 49 47 46 45 43 38 33 33 33 37 38 42
61 63 63 59 64 64 65 64 66 56 55 58 59 59 56 55 54 51 49 47 46 44 43 42 42 41 42 46 50 46 44 43 44 37 31 31 35 37 38 36 38 42 45
63 66 66 65 62 62 64 64 67 70 68 64 62 60 55 52 50 49 47 45 44 44 42 42 42 44 45 49 50 51 50 43 40 40 36 35 34 39 36 37 40 41 43
66 65 66 69 65 63 60 62 66 66 66 64 61 54 52 49 48 45 44 43 43 44 42 41 40 42 46 46 49 50 47 44 41 39 40 36 35 36 36 40 44 44 46
68 65 63 60 60 60 60 61 64 62 63 61 57 52 47 46 46 43 40 37 35 34 33 34 34 35 38 39 40 39 39 40 40 40 39 38 37 37 40 47 48 50 51
67 67 63 62 62 61 61 63 63 62 62 59 56 52 46 42 40 37 36 34 32 30 29 27 26 25 27 30 31 33 31 32 33 36 45 42 46 45 47 53 48 45 43
68 66 65 65 66 67 66 63 63 63 63 58 53 52 49 43 39 38 35 32 30 28 27 26 25 25 25 24 23 26 30 31 31 34 43 44 47 50 53 58 50 45 41

GFSSE_prec_cthk_066.txt.gz
RH
45 33 32 31 30 29 29 30 28 26 25 23 18 21 26 19 12 10 18 27 40 48 47 44 33 22 17 16 10 10 13 16 18 18 25 28 29 28 30 30 31 30 24
42 35 31 29 28 30 29 30 28 26 23 21 25 27 18 13 10 9 10 17 28 39 37 30 20 16 13 11 12 14 18 23 24 24 27 30 33 33 29 29 31 30 29
40 34 31 28 30 30 28 27 25 22 21 22 30 19 16 16 11 10 12 13 19 27 27 21 15 14 13 14 15 18 23 27 30 29 27 30 29 28 26 27 31 34 39
40 35 34 33 30 29 25 22 21 19 18 19 25 19 19 17 13 12 12 13 13 19 18 16 16 15 16 17 16 20 24 26 30 27 27 24 23 21 21 23 26 31 34
44 40 40 37 33 29 26 22 19 16 17 19 23 23 21 18 15 14 13 13 13 15 15 16 17 17 18 18 19 20 26 28 27 28 26 25 22 22 21 21 22 23 23
50 48 46 45 37 31 28 25 21 17 17 19 24 24 23 20 18 17 16 16 16 16 17 17 18 20 20 20 20 21 22 25 27 27 27 22 20 20 20 21 21 20 18
54 51 48 48 45 34 30 28 25 22 20 20 22 24 24 20 19 18 18 18 18 18 19 20 20 21 21 20 20 20 21 23 24 25 25 23 23 24 24 23 22 21 20
60 55 49 49 50 40 33 29 27 25 25 27 27 27 25 22 20 19 19 19 19 18 18 19 20 21 22 22 23 24 24 26 27 27 28 29 28 29 30 30 30 28 26
66 58 51 50 50 45 38 31 28 26 29 31 32 35 33 30 25 24 22 22 22 22 22 22 24 25 25 25 26 26 26 28 28 29 30 31 32 31 32 33 33 33 31
69 63 56 52 47 47 42 36 30 27 28 36 36 36 35 30 27 27 27 26 26 26 26 25 25 26 26 26 27 27 28 29 29 31 32 33 34 34 34 33 33 32 32
76 69 65 57 49 47 45 41 36 31 29 31 36 36 34 32 28 28 29 28 28 28 28 29 28 28 27 27 28 29 29 29 30 30 32 33 34 35 34 35 36 35 34
80 74 67 58 55 53 48 43 40 37 33 32 32 32 35 39 35 30 29 29 29 29 29 29 29 29 28 28 29 29 28 27 29 30 31 33 32 31 30 31 33 35 34
80 76 73 63 59 55 56 49 44 39 38 39 39 35 39 38 37 32 30 29 28 28 28 28 28 29 28 28 27 27 27 27 29 31 33 32 30 30 29 29 31 33 33
79 80 75 68 61 57 59 55 49 44 42 42 43 44 43 39 35 32 33 30 28 27 26 28 28 31 30 28 28 29 29 29 31 32 31 30 31 33 33 33 34 35 34
75 75 71 67 63 59 58 56 55 48 44 44 49 45 46 45 42 39 35 32 31 30 29 29 30 29 31 33 34 33 31 29 31 33 35 37 36 35 35 34 33 35 35
79 78 76 72 67 65 61 59 56 51 47 48 49 46 46 48 46 40 40 34 31 30 29 29 30 33 34 34 35 33 32 30 32 34 36 38 39 38 36 37 38 38 36
74 73 74 71 69 67 61 58 56 54 55 52 50 47 44 47 47 42 39 37 34 33 33 32 32 32 33 34 33 32 32 32 33 36 39 40 40 39 40 40 39 40 39
61 66 69 69 70 73 66 62 58 55 54 54 52 47 46 49 43 42 42 38 39 40 38 38 36 34 34 34 33 34 35 38 41 43 44 45 43 40 38 38 36 38 39
55 60 65 65 64 66 61 64 64 64 57 50 48 48 49 43 45 45 45 44 44 44 43 40 40 40 41 40 43 48 47 51 52 51 48 47 46 45 40 33 31 34 37
56 55 55 55 55 54 53 57 62 63 58 49 49 49 45 46 49 51 50 50 49 49 48 45 44 45 46 45 45 46 48 50 50 46 43 40 39 38 36 37 37 38 37
61 60 58 54 54 56 56 58 62 64 68 67 53 50 50 52 54 56 55 54 53 50 49 48 49 48 47 47 48 47 52 49 50 50 45 43 39 39 36 36 39 38 39
65 62 62 59 56 56 58 61 65 65 65 66 70 65 59 59 59 58 56 54 54 50 47 45 46 47 48 47 46 46 50 46 44 40 39 37 38 39 39 36 36 39 43
66 69 72 66 63 61 61 62 64 65 66 66 68 70 67 68 62 56 53 52 51 49 47 45 44 43 45 43 42 47 53 48 44 42 41 41 40 39 40 38 40 42 49
64 65 69 74 70 68 67 62 60 57 61 64 66 73 65 61 59 53 51 49 46 43 40 37 37 38 38 38 39 38 40 44 45 43 37 39 40 39 42 41 46 49 51
63 65 69 66 66 71 67 64 61 62 63 63 65 63 62 59 58 53 49 45 42 39 37 35 33 30 30 31 31 32 34 34 35 40 41 36 36 41 46 49 48 49 52
63 64 66 67 63 62 63 67 68 65 63 63 65 66 62 57 54 51 49 47 45 42 38 36 33 31 31 31 31 28 31 32 34 35 39 41 42 46 49 56 50 48 55

GFSSE_prec_cthk_069.txt.gz
RH
44 34 34 34 32 31 30 28 27 25 20 18 23 23 15 11 19 30 37 46 48 46 45 39 24 15 11 9 12 15 18 20 23 27 29 27 26 26 28 29 28 28 31
42 35 33 32 31 31 30 29 25 22 21 22 26 15 12 9 9 20 29 41 41 41 33 18 13 9 11 14 18 22 23 23 24 26 29 28 26 25 26 28 30 38 40
40 36 33 30 32 31 29 25 22 20 27 27 16 13 11 9 10 11 20 29 31 27 19 12 12 13 14 18 23 25 25 23 22 22 22 21 20 20 23 28 30 33 34
36 34 32 34 30 28 25 21 20 19 25 24 16 15 12 11 11 12 13 17 18 15 13 13 14 16 16 20 24 26 26 25 24 24 22 19 19 19 20 22 22 22 24
39 36 36 36 33 27 23 20 17 17 20 22 19 16 14 13 12 12 12 13 13 14 14 15 16 17 17 22 26 27 26 25 24 22 19 18 18 19 20 19 19 18 19
45 44 44 41 37 29 24 20 16 16 18 22 21 18 16 16 16 15 15 16 16 16 16 17 18 19 19 19 22 24 25 24 24 23 22 22 23 23 24 23 22 21 20
50 51 51 48 43 33 27 23 20 18 18 21 23 19 17 17 17 17 17 17 18 18 19 19 19 19 19 20 21 23 23 25 25 25 25 25 26 27 28 28 28 27 26
55 53 54 52 46 40 33 26 23 23 23 24 24 21 18 18 18 18 18 18 18 18 19 19 20 21 22 23 24 25 26 27 28 27 28 29 29 29 30 29 29 29 29
65 59 55 55 48 42 38 28 25 26 28 28 31 30 24 23 22 22 21 21 21 21 22 22 23 24 24 25 26 26 28 28 28 28 29 30 31 32 32 31 30 30 31
73 67 58 57 50 45 40 33 26 28 30 31 34 34 28 27 26 25 25 25 25 25 26 26 26 26 26 26 27 28 28 28 28 29 30 31 32 31 30 30 31 29 30
80 73 62 60 55 50 44 38 31 27 33 34 37 36 33 30 28 28 27 28 27 28 28 29 29 28 28 28 29 29 29 27 26 28 30 32 32 30 29 30 29 29 29
82 79 67 67 60 54 47 41 37 31 27 32 34 34 34 34 31 29 29 29 28 28 29 29 30 29 29 29 28 27 27 26 26 28 30 30 29 28 28 29 29 30 30
85 85 75 69 66 55 50 45 41 37 31 29 29 31 38 38 37 33 31 29 28 27 26 26 27 28 28 28 27 27 27 28 27 29 29 29 31 33 35 33 31 30 30
88 81 77 72 71 62 55 51 49 44 37 33 35 34 37 38 39 35 32 31 27 26 25 25 25 26 27 26 28 30 31 30 28 28 30 31 35 36 38 38 34 33 33
82 82 78 77 74 67 62 60 53 51 45 40 40 39 39 40 39 39 37 34 30 27 26 26 26 26 26 29 30 31 30 30 29 29 30 32 36 39 40 40 37 36 36
85 82 83 82 80 70 68 64 63 57 50 50 44 44 42 40 40 40 40 36 32 29 28 27 28 28 29 30 31 32 30 29 29 30 31 35 39 42 43 42 41 40 40
79 80 81 83 82 73 70 66 67 62 54 52 51 50 47 42 39 41 41 37 36 33 32 33 34 35 34 34 33 34 32 32 33 37 43 44 46 46 47 46 43 40 37
70 78 81 82 78 78 74 71 67 64 57 54 56 54 51 45 39 42 39 40 41 39 38 39 38 36 36 37 37 38 39 45 45 48 52 50 47 48 45 43 41 35 33
65 63 69 77 75 78 76 73 72 69 62 61 58 58 55 48 44 41 41 43 45 45 44 43 42 42 42 42 43 44 42 43 45 49 51 51 52 57 50 43 41 36 37
57 62 60 59 65 69 71 70 68 64 60 64 64 59 55 50 45 44 45 48 51 50 49 50 49 49 47 46 46 44 44 44 43 47 47 46 47 46 43 40 40 38 38
65 59 63 61 63 60 56 53 54 55 59 62 58 61 63 59 51 49 52 54 56 56 55 53 51 50 49 46 46 43 41 40 39 39 42 39 45 51 40 40 42 39 39
63 65 68 65 65 62 65 58 54 54 55 58 60 65 69 72 63 61 62 61 59 59 57 53 50 48 50 47 46 44 42 39 40 44 40 37 42 44 43 41 40 40 39
61 65 66 66 69 67 62 63 61 61 62 64 65 64 67 71 68 70 70 69 65 60 55 53 51 51 51 44 45 46 48 46 46 45 45 43 45 45 46 42 40 41 41
65 63 68 69 75 74 75 74 74 67 61 62 63 64 68 68 69 67 66 62 63 62 58 52 47 45 44 39 37 38 41 46 47 48 41 38 39 39 41 40 38 45 48
64 67 66 69 71 73 73 77 80 82 73 69 68 63 64 65 64 62 62 65 62 58 52 48 46 45 41 37 35 33 34 36 40 43 42 34 38 39 43 43 42 46 48
61 64 66 65 69 72 78 76 77 78 76 74 72 66 64 62 64 62 61 60 57 53 50 47 45 42 42 42 41 39 36 34 34 38 42 42 39 40 48 50 50 53 52

GFSSE_prec_cthk_072.txt.gz
RH
41 39 40 37 35 32 30 28 26 21 20 34 19 14 22 30 34 39 41 44 45 45 41 32 17 10 9 13 15 18 21 24 29 28 26 25 25 25 25 30 33 37 35
40 39 37 36 33 31 29 27 24 21 26 29 14 10 14 26 34 46 45 45 43 41 23 11 9 11 14 17 19 21 22 23 25 23 22 19 21 29 26 31 31 32 28
41 40 38 35 33 33 31 26 22 25 28 19 12 9 8 14 27 39 41 37 32 20 11 11 12 15 19 20 21 22 21 21 22 20 20 18 22 22 24 24 25 24 22
40 40 38 35 34 32 27 23 25 31 23 16 14 10 9 10 17 26 32 28 20 13 13 14 15 18 20 21 24 23 24 23 21 19 18 18 18 18 19 19 19 20 20
39 39 36 37 34 28 24 21 23 31 20 16 14 11 11 12 12 14 17 15 14 14 15 15 16 20 22 23 23 22 23 23 22 21 21 21 22 23 23 23 22 21 20
40 42 41 38 35 29 23 19 20 24 20 17 15 13 13 13 13 13 14 15 16 16 17 18 18 19 20 21 23 24 25 26 25 24 24 24 25 25 26 26 25 24 24
45 48 48 46 39 29 24 19 19 22 22 19 17 15 16 16 16 16 16 17 17 18 18 18 18 19 20 22 23 24 25 26 27 27 26 26 27 28 28 28 27 26 25
51 56 55 52 45 36 26 23 21 22 24 23 18 16 16 17 17 17 17 17 18 18 19 20 21 22 23 23 24 25 26 27 27 27 28 29 29 30 30 29 28 29 28
59 61 60 56 50 41 34 28 26 27 28 28 24 21 19 20 20 20 20 20 20 21 22 22 23 24 25 25 26 27 28 28 28 28 29 29 31 31 31 30 32 29 27
67 64 62 60 52 47 38 33 30 29 31 34 31 26 24 24 24 24 23 24 24 25 25 25 25 25 26 26 28 28 28 27 26 28 29 30 31 30 30 29 29 30 27
80 72 64 62 55 52 43 36 32 33 32 33 34 30 28 28 27 27 26 26 27 27 27 28 28 27 27 26 26 25 25 25 25 27 28 29 29 29 30 32 33 32 30
84 76 74 65 59 56 49 42 37 35 34 32 35 35 31 31 31 30 29 29 28 28 28 28 28 28 27 26 25 25 24 25 27 27 28 28 29 31 33 36 36 34 31
96 91 78 71 67 61 54 49 41 35 38 36 34 34 34 34 34 33 31 30 27 26 26 25 25 25 25 25 24 24 26 28 28 26 27 30 32 35 37 40 39 37 36
82 91 92 81 68 67 61 54 48 42 37 35 31 31 33 36 36 35 34 31 28 26 25 25 26 26 26 26 28 31 32 31 29 27 28 30 33 35 39 41 40 39 39
67 75 87 91 76 67 66 58 52 51 46 42 38 35 35 35 36 35 35 35 32 29 26 26 26 25 26 27 29 29 30 31 29 28 28 30 33 38 40 42 41 40 40
70 74 75 89 87 76 70 62 61 58 55 51 47 46 42 40 39 38 38 40 36 33 30 29 29 29 29 30 29 30 30 30 29 30 33 38 44 47 49 48 47 43 41
74 75 75 80 93 86 79 71 67 61 60 57 54 51 49 47 45 40 38 42 39 37 36 34 33 33 35 34 34 34 33 35 36 39 41 44 48 48 47 52 49 46 41
76 75 81 79 82 85 82 75 75 73 67 64 59 56 53 51 48 44 40 40 41 42 43 42 41 41 40 40 40 40 40 39 42 42 43 46 51 48 50 52 50 45 37
78 71 72 79 87 88 86 82 80 80 75 68 67 61 58 53 52 48 45 40 42 45 48 49 48 48 47 47 45 45 45 45 44 43 43 44 47 48 47 47 45 43 41
75 70 68 74 84 85 87 82 84 85 74 72 72 63 61 59 56 53 48 42 45 47 51 52 52 54 54 52 50 48 47 44 42 39 38 40 43 46 46 45 42 40 41
77 74 69 77 83 73 70 74 80 78 71 67 61 59 59 62 63 63 56 48 49 51 53 57 57 57 55 55 52 49 47 43 42 41 41 40 41 43 44 48 43 39 41
64 65 71 69 75 78 71 67 64 63 62 63 62 62 60 61 64 66 68 64 60 58 58 61 62 62 59 54 54 52 46 42 39 38 40 42 41 44 44 50 50 46 41
65 67 68 73 72 74 73 73 71 70 68 66 63 60 62 66 66 69 69 67 67 68 71 69 64 62 62 59 55 55 53 50 45 44 46 44 45 48 48 50 49 42 38
63 66 70 72 77 80 79 74 72 68 68 69 70 73 76 73 73 72 66 66 68 69 68 65 63 62 57 52 50 52 48 49 47 47 45 42 46 47 46 48 46 43 43
64 62 66 68 72 74 76 75 78 77 76 82 80 78 80 85 84 81 78 72 69 65 64 63 58 52 50 48 45 43 42 41 43 47 44 42 40 41 46 46 45 44 47
58 60 64 70 74 75 79 84 86 89 85 90 88 82 80 83 81 80 78 73 67 64 61 58 55 54 54 50 47 44 42 41 40 40 43 43 40 39 45 46 51 49 51

GFSSE_prec_cthk_075.txt.gz
RH
44 41 42 38 38 36 29 27 24 23 27 14 24 28 32 25 33 43 44 46 46 45 39 28 14 9 11 14 18 21 22 23 22 21 22 24 25 29 31 32 30 26 24
41 41 43 39 36 33 30 26 22 26 36 16 17 27 32 41 44 41 44 45 44 37 17 9 10 13 16 18 20 20 20 19 19 19 21 27 30 29 28 27 24 20 20
43 43 43 40 38 32 30 25 22 30 27 13 11 20 29 41 49 49 44 42 34 12 10 12 14 17 18 18 18 19 19 18 18 17 18 20 22 23 24 22 22 25 23
46 44 42 42 40 34 29 25 24 29 19 13 10 10 22 33 43 37 33 25 13 11 13 15 17 19 19 19 19 19 18 18 18 19 19 21 22 23 22 22 21 21 20
49 45 42 43 41 33 27 28 32 22 17 14 11 10 11 24 31 31 24 18 13 14 15 17 19 20 19 18 19 20 21 21 21 21 22 23 24 24 24 24 23 23 23
51 45 40 44 41 34 26 29 31 22 17 14 12 12 11 14 20 19 15 14 16 17 17 18 18 18 20 20 21 22 23 24 24 24 24 25 27 27 28 27 27 26 25
54 46 43 45 37 34 27 26 29 21 17 16 14 13 13 14 15 15 16 17 18 18 17 16 18 20 21 22 22 23 24 24 25 25 26 27 27 29 29 29 29 28 28
55 50 48 46 38 35 27 25 31 25 19 17 16 15 16 16 17 17 18 18 18 18 19 20 20 20 21 21 22 23 23 24 24 25 26 27 29 29 30 30 29 28 28
59 57 55 51 43 37 28 26 29 34 23 18 16 16 16 17 17 18 19 19 20 21 22 22 22 23 23 23 24 24 25 24 24 25 26 27 28 28 28 28 29 29 28
67 67 61 56 50 41 36 32 31 36 30 26 21 20 20 20 21 22 23 23 24 25 25 25 25 25 25 25 26 25 25 24 24 25 26 27 27 27 28 29 31 32 30
79 77 72 64 55 48 41 37 37 38 40 35 31 26 25 25 25 25 25 24 25 25 26 27 27 27 26 25 25 25 24 24 26 27 27 27 27 28 30 32 35 34 33
90 87 77 71 59 54 47 40 39 38 40 39 35 31 30 30 30 29 29 28 26 26 26 26 26 26 25 24 25 24 25 26 28 27 26 26 28 30 33 34 37 36 36
93 97 84 80 68 60 54 46 43 41 39 40 37 34 33 33 33 33 33 31 29 28 27 26 26 25 25 24 25 24 25 28 29 28 27 27 29 31 33 36 37 38 38
84 94 95 89 80 68 62 54 48 47 44 42 41 38 34 35 35 35 35 34 31 29 27 27 26 26 26 26 25 28 30 29 29 29 28 29 30 32 36 40 42 42 42
78 77 84 89 90 78 69 63 56 49 47 49 47 41 35 36 37 37 36 36 36 31 30 28 29 29 29 29 30 30 30 31 32 31 30 33 37 42 48 49 47 47 44
75 72 76 79 85 89 77 68 63 60 56 50 48 44 41 39 39 37 36 37 40 38 34 33 32 32 33 34 34 34 35 34 34 35 38 41 44 47 51 50 50 50 49
73 72 76 83 80 88 79 76 70 68 64 62 58 54 52 49 47 44 42 40 39 42 38 37 36 35 36 37 38 38 39 39 40 40 41 42 44 47 51 51 50 52 49
75 76 78 85 81 80 84 88 80 72 65 64 64 63 61 56 53 50 47 43 42 41 42 41 42 40 42 42 42 43 44 44 44 45 44 43 43 45 47 50 50 49 47
80 83 81 82 85 81 79 85 82 81 78 70 69 69 70 65 59 55 51 48 47 43 42 46 48 48 47 49 48 48 48 48 48 45 45 43 43 44 47 47 51 47 49
82 78 80 77 77 94 92 87 87 87 82 73 74 73 71 71 66 62 56 55 52 47 44 48 51 51 51 53 55 55 52 50 47 45 44 44 43 44 45 46 48 48 51
74 83 82 82 81 84 87 86 91 90 85 80 82 75 77 75 70 66 63 62 60 54 50 52 54 56 59 59 57 58 52 48 47 43 42 40 41 45 44 45 45 50 60
70 74 80 86 91 84 79 76 79 83 85 81 76 68 64 63 65 61 60 64 64 67 65 62 57 59 63 63 61 60 57 51 48 45 42 40 44 45 44 44 47 54 56
59 66 77 85 80 80 84 82 77 81 79 74 70 67 65 67 69 63 63 64 68 71 73 70 72 71 72 69 64 64 62 56 51 50 52 49 48 45 46 48 50 49 46
57 61 67 72 78 81 81 80 77 77 82 86 84 83 81 80 76 66 70 72 75 75 75 74 74 73 69 65 62 60 58 55 54 47 46 46 46 46 48 49 48 46 48
56 58 62 64 71 74 81 84 81 78 83 84 92 95 95 94 92 89 88 88 90 87 83 81 71 68 68 65 60 59 56 51 48 47 45 41 43 42 45 47 46 44 46
52 53 60 65 68 73 74 76 78 79 83 89 89 92 95 93 94 96 94 90 87 87 86 84 77 72 70 68 66 64 60 55 50 47 47 46 44 45 48 50 49 48 48

GFSSE_prec_cthk_078.txt.gz
RH
45 45 44 40 36 36 31 25 21 20 21 25 14 13 20 35 32 33 43 54 52 49 39 25 11 11 15 18 21 21 19 18 19 21 22 28 29 28 27 23 21 21 22
42 44 44 40 38 37 29 24 23 28 18 25 30 30 23 27 39 41 43 43 45 34 17 9 12 15 16 18 18 18 18 17 18 21 22 24 25 24 24 24 22 20 21
45 45 46 41 39 33 30 23 28 33 18 22 31 40 41 48 42 41 42 41 32 10 10 13 16 16 17 18 18 17 16 17 17 19 20 21 22 21 21 20 22 29 29
48 47 47 47 40 33 28 24 31 30 17 15 26 36 44 52 50 41 39 27 10 11 15 17 17 17 17 16 17 18 18 18 19 19 20 21 22 22 22 22 22 23 25
53 50 47 48 40 35 27 26 33 25 15 12 18 29 47 50 39 30 22 13 13 15 17 18 17 16 17 18 19 20 20 20 20 21 22 23 24 24 24 24 24 24 24
59 52 49 47 44 34 28 33 31 20 16 12 11 21 34 38 31 24 18 14 16 17 19 18 18 19 20 21 22 22 22 22 22 22 23 25 26 27 27 26 27 26 26
62 56 52 52 45 36 31 38 32 21 16 13 13 12 22 25 23 18 16 17 18 18 18 20 20 21 22 22 23 23 23 23 23 24 25 26 27 28 27 27 26 26 26
62 61 54 56 43 35 32 38 32 22 18 15 13 13 13 16 16 16 17 18 17 18 20 21 22 23 23 23 24 23 24 24 23 24 24 26 27 26 26 27 28 28 28
69 61 58 54 42 35 29 38 34 27 21 18 16 15 15 15 16 17 17 18 19 20 21 22 22 23 23 24 24 24 24 23 23 24 25 25 26 26 26 27 29 31 30
72 67 59 58 42 34 28 32 38 35 26 20 17 16 16 16 17 19 21 22 23 24 24 24 24 24 25 24 25 24 24 23 23 24 25 25 25 27 29 31 32 33 32
78 74 68 59 48 39 33 31 39 39 30 25 22 20 20 20 21 22 23 24 25 25 26 26 26 26 25 25 25 25 24 24 25 26 25 25 26 28 30 32 34 34 35
86 80 75 65 55 45 39 36 39 44 40 35 32 28 27 27 26 26 26 26 26 26 26 26 26 26 26 25 25 25 25 26 27 27 26 26 26 28 29 31 33 36 37
86 89 82 74 65 55 46 40 40 44 47 43 39 35 33 33 31 31 31 31 30 29 28 28 27 26 26 25 25 25 25 28 30 29 28 28 28 28 31 36 40 40 41
93 92 89 86 76 68 60 48 42 43 45 46 42 39 37 36 36 35 35 35 34 32 29 28 27 27 27 27 26 27 29 31 31 32 31 30 31 35 38 42 45 44 45
91 92 87 89 91 79 70 59 47 47 45 45 46 44 40 38 38 38 38 37 36 35 32 29 28 29 30 30 31 33 33 33 33 33 34 37 40 42 44 47 47 45 49
85 89 85 87 93 87 74 69 60 52 50 53 53 52 47 42 42 41 39 38 37 37 39 35 34 32 32 33 35 36 36 36 36 37 39 40 42 45 47 48 47 44 48
73 82 82 78 79 85 88 78 72 65 60 57 54 52 48 45 45 45 43 41 41 41 41 40 39 38 37 38 39 40 40 40 41 42 43 43 44 44 44 45 48 51 50
71 77 79 73 80 79 82 89 83 78 71 67 64 62 58 55 55 54 51 49 46 45 44 42 43 43 44 44 44 45 46 46 46 44 46 45 43 44 44 44 51 54 54
76 79 83 77 80 81 82 81 83 83 79 76 70 67 64 65 61 61 57 54 52 51 50 47 45 48 50 50 50 51 52 50 49 48 45 46 44 44 44 46 47 52 50
87 79 80 84 84 88 84 87 90 83 78 81 83 75 71 68 68 69 67 60 55 52 54 51 48 50 53 54 54 56 53 53 50 47 45 44 44 43 45 47 47 48 51
81 81 84 89 88 90 88 85 92 91 81 81 89 88 83 77 74 71 73 71 64 58 58 58 55 53 58 55 56 56 56 54 51 50 48 46 44 41 44 49 47 46 48
77 81 85 84 87 93 96 95 84 82 84 87 85 91 88 86 81 82 80 72 66 63 65 67 67 66 60 58 58 57 56 55 53 51 49 49 46 47 51 50 49 48 49
71 76 78 79 81 78 81 87 96 90 87 91 94 86 90 85 78 80 74 81 77 77 73 73 72 68 65 65 67 68 68 64 61 59 56 54 51 49 48 50 46 51 53
62 67 71 75 76 78 80 84 98 95 94 94 93 87 87 89 85 83 88 90 85 84 83 82 80 75 75 71 69 73 76 73 69 61 57 56 52 49 48 48 52 52 51
62 61 64 65 70 70 70 78 86 85 89 85 95 86 83 87 88 94 95 93 94 96 94 90 84 83 81 77 74 73 68 64 62 60 55 50 50 48 47 48 52 53 52
60 61 61 63 64 66 70 75 76 77 88 87 89 89 83 87 84 89 91 97 98 97 91 91 91 88 86 83 77 73 68 67 65 62 60 55 54 52 50 49 54 58 58

GFSSE_prec_cthk_081.txt.gz
RH
50 52 47 45 39 34 33 27 21 20 22 14 16 20 24 29 34 36 58 63 60 52 32 20 15 21 22 20 19 18 17 17 18 22 22 22 22 21 19 19 19 20 21
46 49 49 45 37 35 31 24 22 23 26 21 14 19 36 36 33 39 54 50 47 32 21 13 16 20 18 17 15 15 16 18 19 20 20 20 21 20 20 24 24 22 26
50 50 50 45 38 37 29 23 26 23 26 34 24 23 31 32 37 41 42 44 31 15 12 14 15 17 17 16 15 16 17 17 18 19 19 19 20 20 20 20 22 28 29
51 50 50 49 43 34 28 25 34 19 27 37 37 36 40 48 42 41 41 30 11 12 16 16 17 17 17 18 18 17 18 18 19 19 20 20 21 21 22 21 21 22 23
56 52 51 53 45 35 27 29 34 21 21 33 42 51 52 49 39 38 30 10 12 16 17 17 17 18 19 20 20 20 20 20 21 22 22 24 24 24 24 23 23 23 23
59 57 55 57 47 36 27 33 34 21 17 26 39 53 66 58 31 21 12 13 16 18 18 18 19 20 21 22 22 22 22 21 22 22 24 25 26 25 24 24 24 24 24
60 60 57 60 50 36 29 35 30 20 16 18 30 46 60 36 22 17 14 16 18 18 18 20 21 22 23 23 23 22 22 22 22 23 24 25 25 25 25 25 25 26 26
64 65 63 64 53 37 39 38 30 21 16 14 20 34 35 29 21 17 17 18 18 18 19 21 22 23 24 24 23 23 23 23 22 23 23 24 24 24 25 26 26 27 28
73 70 65 70 62 39 45 42 32 22 18 16 15 23 28 23 20 18 18 18 18 21 22 23 24 25 25 25 25 25 24 23 23 24 23 24 23 24 27 28 29 29 29
79 75 63 71 64 41 40 42 33 26 21 18 17 18 20 19 18 18 18 20 20 22 24 25 25 25 25 26 25 25 24 23 24 25 24 24 25 26 28 29 29 30 31
90 81 69 74 61 42 33 41 37 31 27 22 19 18 17 17 18 19 21 23 24 24 25 26 26 26 26 26 25 25 24 24 25 26 25 24 25 26 27 28 30 33 35
93 91 79 75 62 44 32 36 41 37 31 25 21 19 20 20 21 22 23 24 26 26 26 27 26 26 26 25 25 25 25 25 27 28 27 26 26 26 27 31 35 38 39
86 86 86 81 70 51 38 35 41 40 34 33 28 25 25 25 26 27 28 28 28 28 28 28 28 27 26 26 25 24 24 25 27 28 28 27 26 28 31 35 38 41 41
80 84 90 85 79 63 49 40 39 48 42 38 37 33 32 32 32 32 32 31 32 31 30 29 28 28 27 26 26 26 27 29 29 30 30 30 32 34 36 39 41 42 40
81 82 93 87 85 72 63 51 43 45 49 48 44 40 39 38 37 36 35 35 35 35 34 31 29 28 28 30 30 31 32 32 33 34 35 36 37 39 41 43 43 43 43
74 78 89 92 87 81 68 62 50 46 47 48 48 44 42 42 41 40 39 39 37 36 36 36 33 33 32 32 33 35 36 37 37 38 40 41 42 42 43 43 44 44 46
73 73 79 91 88 86 76 71 63 52 50 53 50 50 50 47 43 43 43 42 40 40 40 40 40 38 38 38 39 39 40 40 42 43 43 43 42 42 41 41 42 42 44
69 70 79 88 82 81 82 83 78 71 59 56 55 58 57 50 46 45 46 46 45 45 45 44 44 42 42 44 45 44 46 47 47 46 44 43 43 43 43 44 42 44 49
71 80 86 85 86 82 80 79 78 79 74 70 68 63 61 58 53 54 56 55 54 51 50 49 48 45 45 48 50 49 49 47 47 46 47 45 43 43 43 43 44 46 47
77 83 84 83 84 86 83 80 80 84 78 72 73 73 71 68 65 66 66 67 63 58 55 54 55 55 53 50 52 52 49 49 48 48 47 47 45 44 41 42 46 48 48
86 85 84 87 84 91 89 92 90 83 80 75 79 80 80 83 78 77 76 74 72 66 62 59 59 62 62 56 54 49 51 49 46 48 46 44 42 40 41 42 48 49 48
88 93 91 90 94 95 90 95 96 93 86 81 82 82 86 90 85 84 82 83 77 74 71 67 66 68 68 66 60 55 53 48 46 50 52 51 46 47 47 49 50 48 50
92 96 95 85 86 92 89 86 92 92 88 91 85 83 87 93 90 94 95 93 93 90 86 79 73 70 73 71 72 67 60 61 62 65 66 64 62 62 56 51 50 46 48
87 88 84 87 85 89 96 87 88 91 95 94 92 91 92 94 94 98 95 89 84 91 98 94 94 90 90 84 74 69 67 67 70 70 66 63 62 59 57 52 50 51 53
81 78 77 83 87 89 85 88 95 96 94 93 96 90 92 94 94 91 90 90 95 94 98 98 98 96 91 87 82 77 74 75 74 70 67 64 61 58 57 53 52 52 54
78 71 68 71 71 76 81 91 91 89 90 91 92 87 93 89 95 97 92 90 87 92 94 98 95 92 89 89 87 87 85 79 75 69 64 64 62 60 56 53 50 52 54

GFSSE_prec_cthk_084.txt.gz
RH
53 54 53 47 42 37 32 27 23 20 19 18 21 23 21 31 43 42 51 64 60 50 29 24 21 22 23 21 19 19 18 21 22 20 20 20 17 17 18 18 23 23 27
52 54 53 47 40 36 33 26 21 21 21 16 19 21 24 33 38 46 56 60 52 33 22 24 22 20 18 17 16 18 19 20 20 19 19 19 18 19 20 23 27 31 26
57 57 52 53 40 35 33 25 22 24 23 18 24 29 38 33 36 51 54 49 32 23 23 22 22 17 15 15 17 18 18 19 19 18 19 23 19 19 20 20 21 26 26
62 59 57 56 42 39 30 24 25 25 36 20 31 37 46 39 39 42 47 35 21 23 20 17 18 17 16 16 17 17 18 18 19 19 24 25 21 21 20 20 21 21 21
66 62 59 57 45 39 30 29 25 28 39 36 37 42 46 43 41 43 38 19 15 21 17 17 17 18 17 18 18 18 19 20 20 22 22 25 24 22 21 21 21 22 22
68 66 60 59 54 41 30 35 29 22 38 43 51 58 63 50 42 40 19 12 17 17 17 18 19 19 20 20 20 19 20 21 22 25 24 25 24 23 22 22 23 23 23
70 69 62 65 58 44 30 38 33 19 31 46 57 68 69 56 39 23 12 16 19 18 18 20 21 22 22 22 22 22 21 21 23 24 28 30 24 23 23 24 24 24 24
75 70 70 74 66 46 34 40 33 19 24 42 56 70 74 50 23 14 16 19 20 20 21 21 22 23 23 23 23 22 22 21 21 22 24 29 23 23 25 27 27 26 26
85 77 76 76 76 50 37 41 28 21 17 29 50 65 62 34 21 17 19 21 21 21 22 23 23 24 24 24 23 23 23 22 23 23 23 27 23 24 27 28 27 27 28
95 90 83 82 81 59 51 46 34 23 18 18 37 47 37 29 22 18 20 19 21 22 23 24 24 25 25 25 25 24 23 22 23 23 23 23 24 25 26 26 27 29 32
98 98 95 88 88 68 58 52 38 27 21 19 20 35 31 27 20 19 19 20 22 24 25 26 26 26 26 26 25 25 24 23 23 25 24 23 24 24 25 27 31 34 36
88 95 98 96 93 70 52 57 41 31 25 25 26 24 29 26 27 26 20 21 24 25 26 27 27 27 26 26 25 25 24 23 24 26 25 24 24 25 27 31 34 37 39
77 93 97 98 97 72 45 54 49 38 34 31 29 30 30 28 21 22 23 24 25 27 27 27 27 27 26 26 25 25 23 23 26 26 26 26 26 29 31 34 37 38 40
79 82 94 98 98 82 57 44 54 44 36 32 26 24 24 27 24 27 30 29 29 28 29 28 28 27 26 26 26 26 26 27 28 28 30 29 31 34 36 38 39 39 41
78 75 85 94 97 87 59 49 49 50 40 37 32 28 28 29 29 30 31 32 32 32 31 30 29 28 27 27 28 29 31 33 32 31 33 33 35 37 39 40 40 42 43
80 85 82 86 99 88 67 50 43 52 51 45 40 38 37 35 35 35 35 35 36 36 35 34 32 31 30 31 34 34 36 35 36 36 37 38 38 38 38 39 40 42 42
83 80 79 85 93 87 77 65 49 43 54 55 52 50 45 43 41 40 41 42 41 39 37 35 36 36 36 35 37 39 40 42 41 41 41 42 41 39 39 39 40 40 41
86 83 82 85 86 91 83 78 63 50 50 53 55 54 53 51 50 48 49 48 47 44 42 40 40 40 41 41 44 45 45 46 47 48 48 45 43 42 42 40 42 42 45
80 79 78 82 88 89 88 78 75 68 59 57 58 57 56 57 58 58 49 49 50 48 47 45 45 43 47 44 46 50 50 49 50 49 50 50 47 45 45 44 41 43 45
82 74 80 88 92 93 87 86 80 75 76 71 67 67 65 62 66 63 53 56 57 55 53 52 50 47 48 51 52 51 54 52 51 52 52 50 46 43 41 39 38 41 44
85 83 84 92 92 88 86 89 82 76 76 76 73 75 78 78 79 74 69 68 65 66 64 61 56 54 55 60 60 58 55 50 46 49 48 45 45 42 40 39 43 47 51
91 89 91 90 91 95 93 90 89 86 80 80 83 83 82 80 80 86 81 80 79 79 80 72 66 63 61 63 64 68 62 55 47 46 50 48 48 49 51 53 55 56 56
98 97 96 94 94 93 91 90 88 87 86 86 85 89 86 85 86 86 93 93 94 90 88 86 85 74 71 72 72 73 67 60 61 60 58 58 56 59 62 59 57 57 53
95 97 96 98 98 97 96 92 88 89 84 84 88 94 94 92 90 94 96 98 95 98 98 98 97 93 92 91 91 84 70 68 70 66 67 65 64 66 66 64 60 57 58
89 88 90 90 90 95 93 94 96 95 93 94 93 87 90 95 90 95 97 96 93 96 98 98 99 94 97 98 97 95 91 78 74 76 75 76 76 73 68 64 61 56 54
90 90 90 94 96 92 90 95 98 99 95 95 97 92 93 92 93 93 95 94 96 95 95 92 91 95 99 96 93 92 92 91 87 80 79 80 76 72 66 62 58 56 54

GFSSE_prec_cthk_087.txt.gz
RH
53 50 48 45 43 41 33 28 25 23 24 25 25 25 31 33 46 42 49 63 62 49 30 29 28 28 24 26 22 20 23 20 18 18 15 15 17 17 17 22 30 26 24
57 52 52 49 43 42 34 28 24 20 19 20 25 25 24 31 45 45 52 58 56 36 34 30 24 24 17 17 16 18 18 18 18 18 17 17 19 20 22 26 26 23 26
61 56 55 52 44 42 35 28 22 21 19 19 26 22 23 35 43 50 50 53 42 35 31 23 20 16 15 17 18 18 18 18 17 20 23 20 19 19 19 21 22 22 25
68 60 58 54 48 40 37 28 23 26 20 20 26 24 32 37 39 52 52 47 29 33 27 22 17 15 16 17 18 18 18 18 19 24 26 25 20 19 19 19 19 20 23
71 70 63 55 53 41 39 28 27 30 21 28 32 42 50 41 42 47 49 33 31 27 22 18 17 17 17 17 18 18 19 19 23 26 27 26 21 20 20 20 21 21 21
80 78 68 62 57 45 38 29 30 35 33 33 39 52 57 47 44 41 35 25 26 21 17 18 18 18 18 19 19 19 20 22 26 27 25 24 22 21 20 21 22 22 22
90 84 76 67 61 54 40 36 30 37 43 40 47 50 59 59 45 43 25 26 24 18 19 19 20 20 20 20 20 20 20 22 27 28 30 24 21 21 22 23 24 24 24
94 86 87 73 73 63 43 40 38 29 47 49 58 67 78 67 47 31 17 23 22 19 20 21 20 21 22 21 21 21 21 21 26 27 29 22 21 22 24 26 26 25 25
87 94 89 81 79 75 50 47 45 28 39 56 64 73 82 73 46 17 15 23 20 20 21 22 23 23 23 22 22 22 22 22 27 26 28 24 22 23 25 26 25 26 28
71 96 88 91 88 82 63 52 45 26 30 50 67 74 82 66 38 15 19 23 21 22 22 23 24 24 24 24 24 23 23 22 26 24 26 22 22 23 23 24 25 29 32
80 86 92 90 92 92 71 62 48 31 23 36 60 74 71 51 34 19 22 26 24 24 24 24 24 25 26 25 25 24 23 25 26 27 26 22 22 22 23 25 28 31 33
73 75 80 97 97 96 81 74 61 36 25 24 48 66 59 45 32 28 22 22 24 25 25 26 26 26 26 26 24 24 24 25 25 27 26 23 23 23 25 28 31 33 35
71 72 72 86 95 98 94 75 76 46 33 30 31 48 49 39 31 30 22 21 24 26 27 27 27 26 26 29 28 25 26 25 25 27 25 25 25 27 29 31 34 35 35
61 66 70 75 88 98 96 79 77 61 38 36 37 35 39 36 31 31 23 22 25 26 29 28 29 30 29 29 28 27 26 25 27 28 28 28 28 30 33 36 37 37 39
70 68 70 71 80 98 94 73 84 70 50 37 34 37 37 34 29 30 31 31 33 32 34 33 33 32 30 29 28 28 28 29 32 33 33 32 32 34 36 37 38 37 36
74 70 66 67 72 89 97 73 76 79 68 48 39 36 35 34 31 35 35 35 36 36 34 33 34 33 32 31 31 32 33 34 35 37 36 37 36 36 36 36 37 38 38
82 77 69 73 76 85 96 78 64 80 77 61 47 39 36 36 35 38 39 39 35 35 38 38 41 36 35 35 35 36 36 41 40 39 42 42 42 37 37 38 39 41 43
96 89 72 77 77 85 90 85 75 58 75 74 56 46 43 42 42 40 43 44 45 44 41 48 41 39 42 40 40 41 42 43 44 45 46 46 46 48 47 45 44 44 44
91 91 85 82 82 83 88 87 81 68 56 72 72 63 59 52 50 48 47 47 49 50 53 53 46 45 45 45 45 48 51 51 50 49 48 49 50 49 47 46 43 39 40
91 94 88 83 82 85 87 85 82 75 65 61 70 71 68 62 59 59 56 54 52 53 62 55 51 52 51 51 52 52 53 53 54 51 50 51 50 47 46 44 42 44 45
91 94 91 86 85 88 91 86 91 80 74 67 63 65 67 66 70 70 68 66 58 59 72 61 58 56 55 54 58 58 58 57 56 53 50 46 45 46 42 44 45 47 55
93 97 94 85 85 90 94 89 97 87 82 81 75 74 76 79 79 79 79 75 71 75 74 69 70 65 66 62 60 64 65 65 64 54 52 49 45 47 47 47 47 51 56
92 94 91 92 92 94 97 93 99 93 94 87 83 85 82 84 84 84 80 83 82 82 80 79 81 82 77 75 68 73 76 70 69 62 63 58 57 58 59 58 56 60 62
96 96 98 96 97 98 99 98 99 97 97 94 89 86 89 85 85 86 88 85 86 90 91 95 92 99 96 90 88 86 90 89 87 79 71 64 62 62 64 67 68 67 66
93 97 97 98 98 97 98 98 99 98 95 92 98 97 90 87 88 87 94 92 90 89 90 92 98 95 99 96 95 95 96 96 92 88 80 77 74 76 75 75 77 70 64
90 93 94 96 97 95 96 94 96 94 96 97 99 96 92 90 86 84 90 95 94 87 88 95 95 94 91 95 99 98 97 94 92 91 90 85 81 79 75 73 73 68 60

GFSSE_prec_cthk_090.txt.gz
RH
58 50 45 43 39 35 32 29 26 27 30 33 34 34 31 36 44 43 48 55 55 44 38 34 34 30 36 29 21 25 21 18 14 13 14 15 16 19 24 26 25 23 21
54 57 51 46 44 39 34 31 26 24 26 29 27 28 29 33 43 42 47 54 50 42 45 36 27 25 22 19 20 18 17 16 15 16 16 18 19 23 25 23 22 27 31
58 62 57 51 48 43 36 32 28 23 22 26 28 26 25 32 42 45 47 50 42 42 44 33 24 17 17 18 18 17 16 17 19 20 18 18 19 19 20 20 20 24 26
62 65 66 58 53 46 38 34 27 23 21 21 28 26 22 33 46 50 47 44 42 40 34 23 17 16 17 18 18 17 17 20 21 22 22 19 19 18 17 18 19 20 21
68 65 70 69 58 49 40 35 27 27 25 24 29 27 27 40 47 49 45 38 38 39 26 15 14 16 17 17 17 18 18 21 23 23 22 20 19 18 18 19 20 20 20
75 69 71 72 66 55 44 36 28 32 23 26 31 34 41 54 47 50 43 34 36 30 24 15 16 16 17 17 18 19 20 23 22 23 22 21 20 19 19 21 22 22 22
74 68 76 78 75 62 49 37 32 37 31 36 43 52 63 63 53 45 38 34 31 21 16 17 17 17 18 18 19 20 21 23 26 27 22 21 20 19 20 22 23 23 23
57 63 74 80 79 68 61 42 36 38 46 39 49 61 64 62 59 45 31 30 20 17 19 21 19 19 19 19 20 21 21 23 25 25 22 20 20 21 23 24 23 23 25
54 56 67 83 85 78 71 51 46 31 52 46 56 65 70 68 65 51 32 29 19 19 23 21 21 21 21 21 21 21 21 23 25 25 24 21 21 22 23 23 23 25 28
60 55 61 92 88 86 77 60 56 37 42 54 60 70 77 74 70 50 31 26 19 20 23 23 23 23 23 22 22 22 22 23 23 25 25 22 21 21 21 21 25 28 31
55 58 62 74 90 89 85 69 66 48 35 51 66 75 79 78 69 47 31 27 21 22 23 24 24 25 25 24 24 23 23 23 24 26 25 22 21 21 21 24 27 29 31
52 58 66 71 86 97 93 89 68 56 32 41 65 76 80 80 62 38 38 31 26 24 24 24 25 25 26 26 25 24 23 24 24 25 25 24 23 23 23 26 28 31 31
69 54 61 66 71 85 96 96 90 67 39 30 52 74 84 76 53 38 35 31 26 25 25 25 25 26 26 26 27 25 25 25 24 24 25 24 24 24 26 29 32 32 33
72 60 59 67 74 77 92 98 95 87 51 32 34 63 76 69 52 37 34 24 24 25 26 27 27 27 27 29 29 27 27 25 25 26 27 28 27 28 30 32 34 34 35
63 58 65 66 70 72 82 93 97 96 73 43 35 39 61 63 49 34 29 25 24 26 27 28 29 30 31 29 28 29 28 27 30 32 30 30 30 31 32 34 33 32 33
67 68 66 66 69 75 75 81 97 97 88 55 44 36 41 48 39 31 31 26 27 30 31 34 33 33 32 30 31 32 30 31 34 35 32 33 35 35 35 34 34 35 36
68 85 75 68 71 78 86 77 86 97 97 77 50 42 38 42 37 35 36 33 34 34 36 35 34 35 35 34 36 34 33 33 35 37 37 37 38 39 38 38 38 40 41
64 73 84 78 73 77 78 79 81 84 95 97 71 46 39 37 36 36 35 35 36 35 36 38 39 39 39 40 45 38 36 37 40 42 44 45 44 45 44 46 45 44 43
59 73 80 92 83 81 83 81 82 80 78 93 93 67 45 43 40 36 36 37 39 42 42 43 43 41 42 47 52 43 44 44 45 47 50 48 47 48 49 46 44 41 39
62 70 76 86 93 89 93 86 84 84 79 82 91 89 69 49 45 42 43 45 48 49 51 49 48 47 47 55 54 46 48 51 54 52 54 56 55 50 46 42 42 41 44
72 67 69 86 90 93 96 93 86 85 79 82 80 89 88 74 56 53 54 56 54 54 52 52 58 55 55 67 59 56 55 57 58 57 57 55 52 46 41 39 41 42 42
72 66 77 88 91 93 95 92 88 88 90 81 71 76 84 89 77 69 68 66 63 59 60 68 72 67 63 78 65 66 64 67 63 62 63 59 53 48 48 46 45 44 44
67 73 85 88 95 94 95 97 94 90 96 92 82 74 80 83 82 79 78 80 81 75 77 75 79 73 74 78 80 76 75 75 74 74 74 63 58 54 55 57 57 57 56
74 79 81 90 96 95 95 96 98 94 94 96 97 84 84 84 86 86 85 83 86 86 85 83 84 84 89 89 92 91 93 91 86 85 84 82 75 72 70 68 62 62 65
76 80 78 87 99 99 96 97 98 98 98 95 97 98 94 92 89 90 84 83 83 88 90 86 88 85 92 93 94 95 96 97 96 93 93 90 84 80 76 76 73 71 70
82 80 77 83 95 97 98 99 98 98 98 98 97 97 97 92 91 91 91 88 82 80 85 90 88 85 90 89 92 92 99 97 98 96 94 91 90 87 82 79 75 70 65

GFSSE_prec_cthk_093.txt.gz
RH
57 57 52 47 41 37 34 31 28 30 30 28 29 29 31 34 34 39 43 45 44 42 45 37 27 32 30 23 29 34 14 12 12 13 14 16 22 24 21 22 19 24 28
56 56 58 53 45 40 38 33 29 28 35 34 32 34 31 36 38 46 48 48 42 41 44 41 32 32 25 22 18 17 14 13 14 15 16 19 22 22 20 22 24 27 32
58 55 59 57 52 46 42 35 29 28 33 32 31 31 31 34 45 45 48 44 45 51 45 40 25 20 17 17 16 16 16 16 15 15 17 18 19 20 18 19 21 23 25
56 60 63 60 58 54 46 39 32 28 26 28 33 28 26 32 46 48 49 42 45 45 44 33 18 15 16 16 15 17 19 19 18 17 17 18 17 17 17 18 19 20 21
53 57 62 62 62 59 50 42 34 27 25 26 29 36 27 31 48 49 50 44 44 39 37 23 14 16 17 16 16 18 21 21 20 19 19 18 18 18 18 19 20 20 20
56 60 63 68 67 66 54 45 36 29 29 27 27 34 28 36 48 50 48 44 41 37 28 17 15 17 17 17 17 18 21 22 21 21 21 19 19 18 19 21 21 21 22
60 61 56 69 72 69 64 49 39 35 31 32 31 35 31 44 63 56 46 40 39 36 20 15 16 17 17 18 18 20 21 21 21 22 21 20 19 19 21 22 22 22 23
62 65 62 66 72 72 72 60 44 41 37 36 38 46 54 61 67 63 46 40 35 25 18 16 17 18 18 19 20 21 22 21 21 22 21 20 21 22 23 23 22 23 25
60 63 64 69 75 74 74 70 57 44 54 43 48 57 66 72 68 66 50 34 29 20 19 18 19 19 19 20 21 21 21 22 21 23 22 20 21 22 22 21 22 25 28
60 63 71 67 63 69 73 77 70 48 58 48 52 61 77 77 69 62 58 34 25 26 24 20 21 21 21 22 22 22 23 23 22 23 23 21 21 21 20 20 24 26 29
74 72 71 71 65 65 70 83 78 72 45 60 56 64 73 76 72 69 63 42 28 26 22 21 22 22 23 23 23 23 23 24 23 23 23 22 21 20 19 22 25 27 29
73 79 79 83 77 68 60 74 87 90 61 51 66 67 77 80 76 73 63 48 30 23 23 24 23 24 25 25 25 24 24 23 23 24 24 23 22 21 21 24 26 28 28
72 76 80 86 85 65 56 75 91 94 85 49 57 77 79 81 81 71 61 48 35 25 25 25 24 24 26 27 27 25 25 25 22 23 24 23 22 22 23 26 29 30 30
61 67 65 78 78 68 70 70 86 92 88 74 48 67 84 89 86 70 57 51 40 32 26 26 26 26 26 28 28 27 26 26 24 23 25 26 25 25 26 29 31 31 30
55 56 68 78 79 67 63 70 76 85 92 86 59 56 83 91 80 63 51 53 42 35 27 27 28 27 28 29 29 28 28 27 25 26 28 27 27 28 29 30 30 30 30
57 67 83 82 80 70 59 68 69 80 85 94 69 45 65 82 81 73 56 48 41 33 29 27 29 30 31 31 29 30 29 29 31 31 30 31 31 32 32 31 31 32 34
68 76 83 86 76 70 67 62 66 84 91 97 87 56 46 63 86 67 53 43 37 29 28 29 32 33 34 33 33 32 31 32 37 36 34 35 34 34 34 35 36 38 40
67 65 84 82 78 75 73 69 70 75 84 96 93 79 59 47 56 78 54 36 31 30 32 34 35 34 36 36 35 36 36 39 43 43 40 40 41 39 39 40 42 42 41
55 57 74 78 77 75 79 76 75 75 81 88 84 80 73 55 50 57 56 39 39 37 37 37 36 37 38 38 38 39 39 46 51 49 45 47 47 44 43 43 42 39 39
46 50 69 65 66 71 77 85 83 83 82 86 88 82 79 60 51 52 50 44 43 41 40 40 41 42 42 43 43 45 46 52 61 54 51 52 50 50 47 46 41 39 39
50 54 65 57 54 69 77 84 90 86 91 90 89 93 87 73 55 49 47 47 43 43 44 45 48 49 48 49 50 50 55 53 70 59 58 59 57 56 53 48 39 39 40
51 54 64 60 58 65 76 88 94 96 91 96 95 92 92 90 76 58 53 52 49 51 53 56 55 55 55 56 56 63 67 66 69 66 65 65 65 62 56 48 46 46 47
51 63 66 63 66 70 78 87 96 95 94 94 94 92 92 89 90 85 71 59 58 58 61 63 61 64 65 65 73 77 76 74 77 80 77 74 71 72 59 57 61 62 60
60 67 72 79 73 75 80 92 93 96 95 92 92 95 93 91 96 93 91 89 68 68 70 72 76 76 72 75 85 84 82 79 84 88 84 89 87 80 69 72 72 70 66
64 71 74 72 75 85 89 86 90 92 98 96 96 98 92 94 90 88 88 96 92 88 84 82 80 82 90 90 92 94 90 86 92 99 95 92 92 90 83 79 77 76 72
68 74 75 76 84 90 91 87 98 96 97 98 94 97 99 97 99 97 96 92 89 87 85 91 84 82 80 84 90 90 88 88 90 91 95 96 95 94 91 88 88 77 71

GFSSE_prec_cthk_096.txt.gz
RH
50 47 52 51 48 41 36 35 31 29 33 38 36 32 30 29 28 33 40 37 36 40 38 35 31 19 19 32 27 15 13 13 13 13 17 22 24 21 20 22 30 36 32
49 49 45 53 51 47 39 37 34 31 31 31 31 32 33 34 34 37 42 38 39 46 48 48 41 27 22 27 22 11 12 13 13 14 19 21 20 20 22 25 26 31 38
51 51 49 48 54 51 45 40 37 34 36 36 34 35 37 38 38 42 47 41 42 49 53 50 37 24 18 17 13 13 13 14 15 16 17 18 18 16 18 19 20 22 22
49 51 51 51 53 56 52 44 39 35 32 36 37 35 37 38 41 44 46 42 48 49 51 44 32 16 16 15 15 16 16 16 16 16 17 17 16 16 16 17 18 19 20
51 52 52 51 55 58 57 52 42 36 32 31 34 38 32 39 44 48 45 46 49 46 46 38 21 16 16 15 17 17 18 18 19 18 18 17 17 16 17 18 19 19 19
52 52 55 55 54 61 60 56 48 38 33 30 30 41 36 36 43 50 47 48 49 40 43 29 19 17 17 17 18 19 19 20 20 20 20 18 17 17 18 20 20 20 21
55 56 56 59 61 62 59 56 50 41 35 33 32 36 41 32 50 57 52 51 47 37 37 26 19 18 17 17 19 20 20 21 21 20 20 19 18 19 20 21 20 21 23
55 54 58 62 64 63 61 60 54 48 43 37 38 35 39 35 59 68 63 52 45 38 32 22 18 17 18 18 21 20 21 21 21 20 20 19 19 21 21 20 20 22 25
61 56 57 63 65 62 58 60 60 59 55 40 46 46 45 48 69 71 70 57 41 34 28 21 18 18 18 19 22 22 20 21 21 22 20 20 20 21 20 19 21 24 26
68 73 77 74 69 68 63 60 59 61 66 58 48 54 56 62 74 75 74 66 39 29 24 21 19 20 19 20 22 23 22 21 22 22 21 20 20 20 19 19 22 24 26
71 67 76 80 78 71 70 64 65 60 62 68 58 61 68 72 77 78 75 64 47 32 29 21 21 21 22 22 22 23 23 22 21 22 22 21 20 20 19 20 22 25 26
63 61 72 81 79 82 80 74 68 67 62 63 70 63 68 80 81 78 74 65 55 41 32 23 23 23 23 24 23 23 23 23 22 22 22 21 21 19 19 21 23 26 26
52 61 78 82 86 87 87 83 68 62 66 65 63 71 72 79 82 79 77 75 61 49 30 26 25 24 24 25 26 25 25 24 22 21 23 23 21 21 21 23 26 27 26
54 62 71 76 84 84 77 77 73 68 64 71 70 67 79 84 82 81 79 78 64 48 38 28 27 27 26 26 27 27 26 25 24 23 22 25 24 23 24 26 27 27 25
56 61 69 76 77 86 80 75 79 71 64 75 76 71 74 84 86 90 83 81 62 50 45 37 30 27 27 27 28 28 28 27 25 24 26 28 28 27 27 28 28 27 27
52 50 55 63 69 82 82 80 81 72 62 65 77 77 78 79 90 100 97 84 66 52 53 48 36 28 28 29 29 29 29 28 26 28 29 31 32 31 31 31 30 30 30
50 47 46 47 61 71 83 82 78 78 65 62 70 80 73 78 84 93 90 79 59 53 55 55 40 31 30 31 31 30 30 29 29 30 32 33 35 36 34 33 34 36 37
46 49 48 49 59 73 77 80 79 76 69 65 74 79 81 76 77 90 87 81 75 68 60 55 38 33 34 34 33 33 33 32 30 33 35 37 40 41 37 36 37 39 40
47 47 52 53 59 70 89 86 79 73 73 72 70 77 78 78 69 70 89 88 68 60 54 46 38 36 37 37 36 37 36 36 36 36 38 41 46 51 44 39 40 40 39
54 47 47 54 65 71 77 83 77 72 75 77 73 70 78 78 78 62 65 80 81 53 52 43 38 39 38 39 40 39 41 40 41 42 43 49 60 56 48 45 43 43 39
52 36 31 53 64 62 69 83 80 75 80 84 83 89 82 82 83 83 60 63 93 76 51 42 42 42 41 44 45 45 46 47 46 46 53 49 67 61 54 52 49 45 40
37 32 30 49 63 61 63 74 82 81 83 86 91 92 92 89 89 82 71 55 59 66 57 52 48 46 49 52 51 53 54 53 55 57 56 59 68 68 61 58 56 52 49
38 39 41 62 67 69 71 77 72 82 85 93 94 97 95 96 92 84 76 65 65 59 51 51 51 54 51 53 56 62 67 66 63 63 66 71 76 74 77 73 64 57 58
41 38 40 64 70 70 80 76 70 82 85 89 91 96 98 98 97 94 84 73 62 55 53 55 55 59 60 65 72 79 76 72 73 73 78 79 81 82 84 83 78 68 68
49 44 49 59 66 73 81 74 72 77 86 85 93 96 97 99 98 96 93 93 86 72 71 72 68 68 69 74 80 81 88 92 90 92 86 82 83 86 96 90 89 79 78
53 54 58 66 73 76 79 78 76 81 85 84 89 94 97 96 99 97 93 98 99 95 89 93 84 82 87 82 90 89 88 86 90 91 90 89 88 87 89 94 88 85 86

GFSSE_prec_cthk_099.txt.gz
RH
41 45 43 44 47 46 44 42 38 35 32 31 33 34 31 30 30 26 31 32 31 30 33 36 36 28 25 23 17 15 15 14 12 18 24 23 21 18 25 34 36 38 41
44 42 42 42 46 46 44 43 38 36 33 33 36 35 31 31 30 31 35 33 31 33 39 46 39 28 30 24 13 11 12 13 14 19 20 19 21 23 24 25 31 37 33
48 47 45 44 42 45 46 46 40 37 37 35 31 30 32 37 37 38 38 35 37 44 49 56 45 27 24 17 12 13 13 14 15 18 19 18 17 18 18 18 20 21 21
50 49 47 42 42 45 48 48 45 41 39 40 36 33 34 38 43 45 43 40 45 47 49 52 42 23 17 13 14 15 15 15 15 16 16 16 16 16 16 17 18 18 18
49 51 49 46 45 46 46 52 50 44 39 39 41 39 37 39 46 48 47 45 46 52 46 47 38 19 14 14 16 17 17 17 17 17 17 16 16 16 16 18 18 18 19
49 51 51 51 48 48 49 52 51 48 40 37 37 41 41 41 43 46 48 52 52 48 47 39 31 18 15 15 16 19 19 19 18 18 18 17 17 17 18 19 19 19 21
51 54 53 54 55 53 52 53 52 49 43 36 35 38 43 41 41 53 53 59 56 47 43 33 29 19 16 16 17 19 20 20 20 19 18 17 17 18 19 19 19 20 22
56 54 55 56 57 57 60 56 52 49 45 40 37 35 44 45 43 52 63 66 61 47 41 33 29 19 17 17 18 19 20 21 20 19 19 18 18 20 20 19 20 22 24
67 68 61 58 60 59 60 62 57 53 53 48 44 39 41 52 50 56 65 69 66 51 37 32 28 20 18 18 19 20 20 21 21 19 19 19 19 20 19 19 20 22 24
71 72 72 75 72 71 66 61 58 55 58 55 52 53 44 50 50 62 68 70 70 52 35 29 27 21 19 19 20 21 21 21 22 22 20 20 20 20 19 19 21 22 23
77 77 79 76 82 89 74 66 60 59 56 58 58 59 57 54 53 66 73 72 73 57 38 28 25 21 20 21 20 21 21 22 21 22 21 20 19 20 19 19 21 22 24
70 72 74 72 78 83 83 79 70 65 59 58 57 58 67 66 63 70 72 76 74 56 46 31 26 22 22 22 22 21 22 23 22 22 22 21 20 20 19 20 22 24 24
72 71 71 72 78 80 78 83 84 77 73 67 66 63 64 77 77 76 79 81 75 59 56 45 28 24 24 23 24 24 23 23 23 23 23 22 21 21 21 21 24 27 26
65 66 71 71 75 84 87 89 84 81 76 75 66 67 67 73 81 84 84 85 75 64 60 51 37 27 26 25 24 25 25 25 25 24 23 23 22 23 22 23 26 28 27
60 61 64 67 69 80 92 90 86 84 76 71 74 68 61 69 82 88 87 88 79 79 60 59 46 40 29 27 27 27 27 27 26 25 24 25 24 24 25 26 27 28 26
57 59 63 66 72 85 86 84 86 85 74 70 71 71 70 65 78 85 92 92 86 81 71 57 51 50 37 30 29 30 29 29 28 27 25 26 27 27 28 29 28 26 28
59 55 63 64 67 73 74 76 79 87 80 73 73 71 61 59 69 82 85 95 93 96 70 62 57 55 53 41 32 32 32 32 30 29 29 30 30 30 31 29 33 30 33
60 59 56 63 63 67 74 75 73 79 78 74 73 72 66 58 64 74 87 95 98 93 83 64 63 58 56 48 37 34 34 34 33 31 31 32 34 34 35 35 38 37 36
61 59 55 60 59 59 64 68 70 71 69 71 74 72 70 67 72 71 82 85 88 85 83 74 67 61 58 51 42 39 38 36 36 34 34 35 37 39 39 41 41 41 39
57 62 55 56 57 49 48 50 51 56 77 78 74 74 71 73 71 80 76 74 83 84 81 80 78 69 59 52 47 43 41 39 39 38 39 38 41 43 46 47 54 52 45
53 62 55 47 49 45 45 51 57 69 72 77 76 76 75 76 74 80 82 85 79 84 81 80 76 71 63 56 56 49 42 42 41 41 42 43 44 47 51 55 64 68 54
49 54 52 48 36 34 47 57 59 72 74 76 76 75 79 81 80 81 84 87 81 85 90 82 66 68 57 55 52 48 51 47 44 44 48 50 53 52 57 64 66 67 65
48 55 49 47 45 35 41 61 71 73 75 74 78 79 81 84 87 91 87 90 89 86 82 80 75 69 63 58 52 57 58 56 54 57 61 64 57 60 67 73 71 73 74
44 52 47 42 37 40 47 54 72 76 75 76 73 83 83 89 93 95 96 95 95 91 79 66 81 71 64 55 59 63 63 63 64 65 65 67 68 72 79 77 81 83 82
56 65 51 41 42 43 60 63 75 79 75 73 77 84 85 90 88 92 97 97 98 89 84 74 77 74 63 63 65 62 63 64 69 68 70 76 87 81 85 83 85 85 85
57 54 52 51 48 54 61 69 79 78 74 76 77 83 85 89 91 91 95 98 99 95 89 79 75 71 71 70 72 72 77 81 85 84 84 85 90 89 89 89 89 89 88

GFSSE_prec_cthk_102.txt.gz
RH
37 40 46 44 44 46 49 44 41 37 36 36 34 35 36 32 32 30 28 29 28 27 27 39 39 31 19 21 20 16 14 15 19 24 21 17 22 32 37 40 42 44 48
40 43 47 44 43 44 47 47 44 41 37 35 33 35 33 31 29 28 32 32 29 28 30 37 40 39 24 17 12 11 12 14 18 18 18 20 22 23 29 37 39 35 30
43 46 45 44 45 47 45 47 47 44 38 36 36 37 33 29 31 31 35 34 31 35 41 46 43 40 24 12 11 12 13 15 17 17 16 16 17 16 16 16 18 19 19
45 47 49 47 45 44 45 47 47 47 44 40 37 33 37 36 38 40 38 36 41 47 50 51 45 36 19 12 13 14 14 15 15 16 15 15 14 14 15 15 17 17 18
39 42 46 48 49 47 46 46 47 50 51 46 42 38 40 41 42 44 43 41 53 58 56 45 43 32 16 14 15 15 15 15 16 16 16 15 15 15 15 16 17 17 19
42 44 47 47 48 47 46 47 48 49 49 48 44 45 46 52 48 45 44 46 51 58 50 46 40 29 17 16 16 17 17 16 17 17 16 16 16 16 16 17 18 19 21
46 47 46 47 48 48 47 47 49 47 48 46 45 43 42 48 51 50 50 52 55 56 48 40 35 28 19 16 18 18 18 18 18 18 17 16 17 17 17 17 18 19 21
55 52 49 48 50 50 49 51 52 52 49 45 42 40 42 45 46 49 56 56 59 60 50 40 32 28 21 17 18 18 19 19 18 18 18 17 18 18 18 17 18 20 21
63 58 59 57 53 54 54 52 52 54 51 48 45 41 40 50 54 53 58 62 64 63 53 45 31 29 24 18 19 19 19 20 19 18 18 18 18 18 18 17 18 21 22
68 67 63 67 74 69 64 60 58 54 54 52 54 52 50 48 57 57 58 65 69 64 57 52 33 29 26 20 19 20 19 20 22 21 20 19 19 19 18 18 19 20 21
60 72 75 73 74 80 78 72 69 63 57 60 55 56 57 52 53 55 62 66 68 67 56 54 42 29 24 21 21 21 20 21 21 21 21 21 20 20 19 19 20 21 21
55 68 78 82 82 83 80 82 77 73 63 56 55 55 59 56 63 59 63 71 73 74 63 53 50 35 25 21 21 22 22 22 21 22 22 21 20 20 20 20 21 22 22
56 63 74 79 84 82 84 85 81 78 76 68 64 60 57 60 64 67 70 73 77 76 67 55 50 43 31 23 21 22 23 23 23 22 22 23 22 20 19 20 22 23 24
53 59 62 74 79 84 88 90 88 85 79 74 71 73 67 63 70 75 77 82 80 81 82 60 52 45 40 28 23 23 24 25 25 24 23 23 23 21 20 21 23 24 24
50 56 57 64 70 83 86 91 95 93 87 80 78 73 73 71 77 82 85 85 89 89 79 68 58 51 43 41 28 25 25 26 26 26 25 24 25 25 24 24 25 26 25
44 56 55 56 67 77 84 89 96 93 90 85 82 79 73 75 76 75 79 86 90 89 86 80 63 60 52 45 44 33 27 27 28 28 27 26 27 28 27 27 28 28 26
46 52 60 58 62 73 81 86 86 85 89 83 81 79 73 67 67 71 69 74 86 92 92 90 73 65 55 50 49 46 37 30 30 30 29 27 28 30 30 30 31 30 29
48 52 63 62 59 66 74 77 76 81 80 80 79 79 75 70 68 66 64 62 74 85 89 99 86 70 64 58 55 51 47 42 34 32 31 30 31 32 33 34 33 33 36
54 54 62 68 62 62 63 72 73 77 77 77 76 70 70 71 67 67 70 66 73 79 90 94 93 84 75 66 63 56 54 50 42 36 34 32 32 33 35 37 37 39 38
53 57 60 75 71 65 63 71 72 71 73 70 70 64 70 68 69 72 72 72 79 78 77 87 94 85 81 77 71 61 57 56 51 41 38 37 35 35 38 40 41 43 43
48 56 59 69 78 70 62 63 65 63 65 63 64 67 68 65 70 75 77 79 85 81 78 86 92 90 89 81 77 67 62 61 57 45 42 42 41 40 43 45 46 51 50
30 55 57 68 71 68 65 60 62 57 58 55 59 65 62 66 71 74 77 77 82 81 84 82 85 88 87 85 82 76 72 63 61 55 50 50 46 44 50 52 56 55 58
24 45 51 61 65 61 57 43 42 48 47 48 55 60 66 72 75 78 78 83 83 88 91 96 93 91 90 87 80 76 75 67 60 51 49 52 48 56 53 55 58 63 65
26 30 53 55 58 58 64 57 39 33 43 47 59 65 74 74 72 78 78 82 82 94 95 96 95 91 91 82 76 73 70 67 61 57 57 57 61 64 65 67 72 73 75
43 43 55 54 61 54 59 52 48 45 50 58 64 70 75 76 73 77 82 88 94 96 96 95 95 92 92 90 78 77 80 73 65 65 65 69 73 73 75 72 70 73 80
64 64 63 63 62 64 63 52 49 57 61 62 63 75 78 73 70 74 83 86 94 95 96 96 97 96 90 89 90 87 81 76 68 71 75 72 75 76 80 79 79 83 86

GFSSE_prec_cthk_105.txt.gz
RH
35 39 43 44 44 45 46 46 43 43 41 39 39 39 38 37 34 32 30 26 26 29 37 37 33 34 30 25 21 15 17 24 23 16 19 22 29 34 38 42 46 49 48
37 40 44 45 44 44 48 47 47 45 42 39 36 38 37 35 32 29 29 29 28 29 34 37 42 35 25 18 13 12 15 17 17 17 20 23 29 36 39 39 38 32 26
42 43 47 45 43 44 46 45 46 47 46 42 37 34 35 34 31 30 32 32 29 30 36 41 45 40 21 11 11 12 16 16 15 15 17 17 17 17 17 17 18 19 18
45 48 48 47 46 45 44 48 44 47 46 43 41 39 34 30 33 36 37 34 32 42 57 51 43 38 21 12 13 13 15 16 15 15 14 15 14 14 14 15 16 16 17
45 44 45 49 46 44 45 43 43 43 46 48 46 42 45 44 40 42 42 40 47 62 70 56 40 34 24 14 14 14 15 15 15 15 15 14 14 14 14 15 16 17 19
45 44 44 45 46 47 48 44 43 43 45 47 48 43 50 54 52 47 44 50 54 59 61 52 42 32 25 17 15 16 16 16 16 16 15 15 15 15 16 16 17 19 20
47 46 45 44 45 44 45 45 45 46 46 45 46 48 47 50 61 59 50 55 57 64 60 49 41 31 27 20 17 17 17 17 17 17 16 16 16 17 17 17 18 19 21
52 64 55 48 46 47 45 44 45 46 49 45 43 43 44 47 50 56 57 60 57 61 61 54 42 31 27 24 17 18 18 18 17 17 17 17 18 18 18 18 18 20 21
51 61 70 67 55 52 50 49 49 49 48 49 49 43 40 43 51 57 58 63 67 67 64 56 44 34 28 26 20 18 18 18 18 18 17 17 18 18 18 18 19 20 20
50 52 61 70 70 65 62 59 56 54 50 49 49 48 45 45 47 54 59 65 74 78 68 58 50 41 30 27 23 19 18 19 19 18 18 18 18 18 18 17 19 21 21
51 52 54 60 70 75 71 70 74 72 59 53 51 51 51 53 54 53 54 60 68 76 72 61 54 48 38 29 26 22 19 19 20 20 20 20 19 19 18 18 19 21 22
51 53 53 56 69 78 80 80 78 80 72 64 62 59 56 55 55 57 58 58 62 70 74 67 60 49 48 37 28 24 21 19 19 20 21 21 20 20 19 19 19 21 22
39 48 55 55 57 67 84 87 85 86 82 76 71 66 58 58 57 55 60 66 65 70 72 73 61 54 49 45 35 27 25 23 21 20 21 22 22 21 20 20 20 22 24
34 40 48 57 58 62 77 83 86 93 88 81 78 77 76 69 63 61 61 66 70 75 76 84 66 54 51 48 43 32 28 27 24 23 22 21 22 22 21 21 21 23 24
33 39 43 49 54 58 65 76 90 94 93 90 86 79 78 78 75 75 76 80 83 85 86 87 78 65 58 51 46 42 33 29 28 26 25 23 23 23 24 23 23 24 26
31 36 43 45 51 53 57 65 83 92 96 92 87 85 78 76 80 81 81 84 88 94 96 97 93 78 63 58 50 46 44 38 31 29 28 27 25 25 25 25 25 26 28
22 35 39 45 47 49 56 59 71 89 93 92 89 86 84 81 78 78 80 79 79 82 91 97 97 89 79 69 61 54 51 51 47 36 33 30 28 26 28 28 28 29 28
13 28 37 43 48 51 55 60 64 78 89 82 87 87 84 81 80 78 75 69 68 72 74 79 85 95 93 79 69 64 54 52 52 50 41 34 31 29 30 31 32 32 31
17 18 36 39 47 57 58 63 64 71 79 81 86 83 82 79 76 79 78 72 68 66 65 68 70 84 94 93 79 71 62 55 56 56 53 45 37 33 33 34 35 36 36
22 18 34 41 43 58 62 62 66 69 69 79 80 82 81 75 71 68 71 69 68 67 67 68 72 76 88 92 90 81 73 66 62 62 62 53 49 41 34 35 38 38 40
26 23 31 45 47 61 65 60 66 65 68 69 75 78 73 73 72 68 66 68 67 68 70 74 75 79 82 93 91 84 82 80 72 66 64 60 56 50 45 39 42 44 45
30 27 31 52 50 58 74 66 65 69 67 69 66 68 67 66 70 71 70 69 69 67 74 77 72 79 80 83 87 84 87 77 74 75 67 63 61 60 50 46 46 50 51
38 33 30 49 71 67 64 69 62 65 66 62 60 61 65 65 69 69 69 67 69 68 75 74 74 77 81 87 93 94 90 82 83 73 66 64 62 60 60 58 60 62 66
42 36 30 50 59 87 86 74 62 56 57 49 46 51 61 61 62 63 65 68 68 74 76 78 83 80 86 88 92 92 92 92 91 80 70 66 68 64 63 63 63 66 69
51 42 35 53 72 69 69 67 69 69 62 60 41 46 56 57 58 63 68 72 75 75 79 77 82 86 89 94 95 96 93 91 91 88 78 71 65 63 62 65 69 74 80
72 55 54 59 76 74 67 69 69 68 66 69 56 53 61 67 66 70 73 74 75 72 75 81 88 90 96 97 98 96 95 92 87 85 81 72 67 69 73 75 78 79 81

GFSSE_prec_cthk_108.txt.gz
RH
39 41 43 45 43 45 44 46 47 50 48 49 40 42 41 41 40 34 30 26 24 31 32 28 34 39 33 24 16 16 24 24 14 20 19 23 31 35 39 45 51 51 43
42 44 44 46 45 43 43 43 44 47 47 43 45 44 37 39 36 32 31 27 27 34 35 34 39 44 33 21 13 15 20 18 15 18 26 32 38 40 40 44 42 29 22
41 46 47 48 46 46 47 44 42 44 45 44 41 46 39 36 33 31 33 30 30 35 37 38 38 36 27 14 12 14 16 15 17 19 19 24 24 25 22 20 18 17 17
44 48 51 48 46 46 47 47 42 42 45 45 41 39 43 35 31 33 35 35 31 41 59 54 46 35 25 15 13 15 16 15 15 16 21 21 20 14 15 15 16 16 17
49 50 50 50 49 48 46 46 45 40 42 45 45 43 41 43 40 39 39 37 39 63 68 60 48 34 26 21 14 14 15 16 16 16 17 19 21 14 14 15 16 17 19
47 49 48 46 48 50 50 47 47 44 40 41 45 47 46 55 50 49 45 43 52 68 73 63 49 35 28 25 16 14 15 15 16 17 16 15 20 15 15 16 17 19 20
44 46 47 45 46 47 49 52 52 47 45 46 49 50 49 51 56 60 64 57 62 67 73 65 53 37 29 27 21 16 15 16 17 17 18 16 16 16 16 17 17 19 20
48 47 49 53 51 51 47 47 50 50 50 49 49 48 48 49 51 59 64 63 67 67 76 66 55 42 32 28 26 19 17 16 17 17 18 21 17 18 18 17 17 19 20
47 50 57 56 65 66 58 52 48 48 50 50 50 49 49 50 50 54 58 61 65 67 76 71 57 47 39 31 29 24 19 18 17 16 17 21 18 18 18 18 19 20 20
47 49 51 61 59 66 70 66 59 55 53 50 50 49 48 46 47 49 57 60 64 71 74 81 63 48 45 35 31 28 23 20 21 17 16 19 19 19 18 18 19 20 21
47 50 50 52 58 60 68 73 72 68 65 60 53 48 46 48 53 50 53 57 63 75 82 85 74 54 47 45 40 30 25 25 25 22 21 17 17 18 19 19 19 20 21
36 39 46 52 51 55 62 68 76 79 77 71 67 62 55 61 61 61 62 59 60 67 76 79 77 65 54 47 46 40 27 28 28 26 24 20 19 18 19 19 20 21 22
34 37 37 41 47 53 56 61 70 83 85 83 77 76 75 67 65 64 62 64 65 68 70 74 76 66 62 59 49 47 44 32 29 26 23 23 21 21 20 19 19 20 22
22 32 38 39 42 45 52 57 62 76 88 88 82 82 77 77 73 72 68 62 66 74 76 81 76 74 68 59 54 51 49 42 33 30 26 23 23 23 22 21 21 21 23
14 22 32 37 41 45 46 51 61 65 73 86 87 87 86 82 81 79 74 73 74 74 76 82 87 82 78 59 57 55 52 48 46 40 31 26 24 24 25 24 23 23 24
10 12 20 30 36 42 48 49 50 59 69 77 89 93 91 86 83 82 81 80 77 85 86 88 89 91 89 75 64 57 56 51 46 46 42 33 27 25 25 27 27 29 28
18 14 12 20 27 37 44 48 49 52 60 71 84 93 91 89 85 84 83 84 81 79 87 94 95 97 94 90 76 67 62 58 53 49 50 48 38 29 26 27 29 28 30
20 21 17 17 22 28 40 45 49 52 59 66 74 83 92 89 85 85 81 79 77 80 79 83 84 88 94 92 90 78 66 69 58 54 54 50 50 47 35 29 30 31 31
17 19 21 17 21 25 31 45 48 52 58 63 61 65 83 89 94 90 84 80 80 79 77 76 79 80 79 80 85 85 80 75 67 65 59 58 55 53 47 40 33 33 35
25 23 22 21 22 28 29 40 48 53 60 64 64 63 70 84 86 88 82 78 76 76 78 78 76 77 78 75 71 87 84 81 82 76 63 62 62 61 56 53 49 41 38
28 30 29 26 24 33 32 34 47 52 59 64 69 74 74 90 92 85 84 80 73 73 76 75 74 75 75 75 77 80 80 78 80 77 79 66 65 66 66 60 55 50 49
32 34 32 31 29 37 41 41 51 58 60 71 77 77 80 78 82 84 78 78 80 74 72 70 72 73 73 72 73 76 79 79 87 80 78 74 72 72 72 69 64 59 56
51 44 43 36 32 44 56 56 62 68 67 72 78 78 76 76 76 78 73 75 74 76 68 74 78 74 77 73 72 74 76 76 80 80 74 75 75 74 71 73 67 65 62
68 46 51 46 41 52 68 59 77 78 76 78 79 78 78 74 72 71 73 72 71 74 74 73 79 76 76 76 76 72 75 77 81 82 82 84 78 76 71 68 68 68 64
77 71 60 56 49 48 72 67 77 89 88 83 80 76 63 62 63 65 64 65 68 70 68 72 70 74 76 77 78 80 78 80 83 87 88 89 85 79 76 71 69 70 71
89 82 60 53 49 66 81 83 94 94 87 81 73 64 58 61 66 63 59 59 64 69 73 72 70 73 77 76 81 86 85 88 87 90 90 89 90 90 82 75 72 71 74

GFSSE_prec_cthk_111.txt.gz
RH
43 41 42 44 43 42 43 45 48 52 53 52 45 44 41 39 40 36 32 28 24 30 30 26 36 42 35 18 14 24 20 15 20 17 17 23 28 33 39 47 52 46 30
40 42 42 46 44 43 42 41 42 47 50 51 47 47 51 40 37 34 31 29 28 36 32 31 40 43 35 16 13 22 20 14 17 24 30 39 46 47 49 50 43 28 21
41 42 46 47 47 44 43 42 40 41 45 47 45 43 48 44 37 31 31 30 32 49 38 39 41 39 34 18 13 17 15 15 18 23 30 38 35 33 31 25 19 17 16
44 47 49 48 48 53 48 49 44 40 41 45 45 44 42 49 35 32 32 33 34 47 59 55 48 38 26 21 14 16 14 15 17 18 29 28 22 16 15 15 15 16 16
49 51 56 53 47 51 56 53 54 45 41 41 42 42 47 47 41 39 38 36 36 52 69 63 51 38 27 23 18 16 15 15 15 19 23 24 21 14 14 15 16 18 19
45 55 50 48 47 47 51 52 54 51 48 44 43 42 45 48 48 46 45 41 41 58 69 67 56 41 30 26 22 16 16 15 16 21 22 18 21 15 15 15 17 19 20
44 48 52 45 44 45 47 51 54 53 51 49 50 52 48 51 54 53 57 54 56 66 75 74 62 45 36 29 25 19 16 17 20 22 21 21 16 16 16 17 17 19 20
43 45 47 46 42 43 46 50 53 53 51 51 52 52 51 53 54 55 59 61 62 75 78 86 70 52 41 35 28 25 19 18 21 23 23 23 17 16 17 17 17 19 20
45 47 48 50 52 49 49 54 54 54 50 49 50 50 47 51 54 57 58 62 62 65 70 80 81 60 44 43 34 29 23 19 22 24 23 24 18 17 17 17 17 19 19
46 48 49 51 56 62 62 51 56 61 58 55 54 49 46 45 47 51 54 60 62 64 69 74 82 70 54 44 43 32 27 23 20 23 23 23 19 18 17 17 17 19 20
35 42 44 49 54 57 62 65 57 54 64 65 61 59 55 50 47 43 45 51 55 61 69 76 83 79 64 52 46 44 38 27 26 26 24 22 19 18 18 18 19 19 20
26 30 38 41 45 48 55 61 63 62 62 68 72 69 60 58 56 57 56 49 50 57 65 76 84 86 74 61 53 47 43 41 36 28 27 23 19 19 19 20 20 20 21
17 23 28 31 36 41 45 50 58 65 67 71 73 78 74 70 71 72 66 62 61 60 64 73 80 82 75 66 61 55 48 43 50 40 30 25 22 21 20 20 20 21 22
10 14 18 28 31 34 38 44 50 56 64 68 64 69 82 82 77 77 79 75 66 66 66 71 76 80 81 66 61 60 57 53 50 50 42 30 25 23 22 20 19 20 21
11 10 11 16 22 30 34 38 43 47 55 65 71 72 76 83 83 82 81 83 78 70 71 73 76 82 90 85 74 71 60 59 55 54 47 43 35 27 25 24 23 21 20
16 14 13 12 14 20 28 34 40 45 49 57 65 68 66 70 86 86 88 87 84 83 80 81 80 79 86 88 89 77 66 64 61 55 53 47 44 39 30 27 25 28 26
15 16 17 16 14 15 22 27 37 42 49 54 57 62 63 69 74 84 90 92 92 90 90 92 90 89 88 92 92 86 79 75 68 61 56 52 49 48 46 38 28 27 28
19 18 16 18 18 15 15 24 33 39 46 53 56 57 64 66 69 80 90 93 93 92 90 90 87 90 92 94 94 96 90 78 73 69 65 62 54 52 51 49 47 36 31
22 21 20 20 19 22 19 20 30 40 46 54 55 62 67 67 66 71 80 93 93 90 89 87 86 84 85 87 86 87 85 79 77 73 65 67 65 60 59 55 53 50 39
24 22 21 21 21 22 22 23 31 40 46 58 59 62 60 65 69 69 74 89 95 93 88 86 84 82 83 87 86 84 82 80 78 76 73 68 69 75 67 58 57 56 51
35 28 26 26 25 27 25 27 31 37 48 62 63 67 66 64 65 63 65 73 87 85 80 80 80 87 85 86 86 87 84 81 77 76 71 70 70 78 74 65 63 60 59
45 47 39 36 41 42 33 28 34 43 44 59 69 72 80 72 67 64 64 62 80 85 81 81 81 83 81 83 82 85 80 74 70 69 74 74 71 71 72 69 68 64 66
56 57 57 58 52 52 45 35 38 43 54 67 77 74 77 82 78 71 68 63 71 85 83 82 79 83 83 84 80 85 82 73 69 66 66 68 71 74 79 76 70 69 67
62 61 62 64 60 51 47 37 45 56 56 65 74 83 77 78 70 71 74 75 72 73 79 82 82 78 83 88 91 91 84 76 72 68 71 69 70 70 74 75 68 68 68
70 69 75 76 78 65 66 52 56 74 73 71 87 94 89 78 81 78 76 76 76 73 75 79 82 79 81 88 89 88 82 76 75 78 76 74 74 76 78 83 82 79 70
77 80 79 71 66 63 80 76 82 86 74 86 98 99 92 78 80 78 67 62 64 71 73 76 81 84 84 84 87 89 86 76 72 78 85 79 81 83 86 89 85 82 77

GFSSE_prec_cthk_114.txt.gz
RH
37 41 44 45 43 41 40 41 45 51 52 53 46 43 43 38 36 34 32 29 25 30 27 26 37 40 29 13 18 18 17 26 19 14 17 22 25 29 36 48 44 32 25
38 40 42 42 44 42 41 41 40 42 46 50 49 47 47 46 38 33 28 28 28 35 29 33 41 44 35 16 20 24 14 16 18 24 32 42 45 50 52 52 41 25 19
38 37 41 43 47 44 43 41 42 40 42 44 47 47 48 47 41 37 30 28 30 44 37 41 52 42 34 20 16 19 15 17 24 29 35 39 43 42 41 31 23 16 16
41 42 41 45 49 48 48 52 46 43 41 42 45 47 43 48 44 35 34 31 32 49 53 51 51 41 31 21 18 17 16 18 19 22 27 26 24 22 18 15 15 15 16
45 46 50 49 50 50 49 51 57 53 46 45 41 40 44 46 47 39 38 37 34 50 63 61 52 42 32 26 21 16 15 17 19 23 26 21 15 13 13 14 15 17 18
44 46 52 59 53 49 48 47 50 54 53 48 46 42 43 44 49 45 42 41 37 47 61 66 58 49 36 31 26 20 16 16 18 22 21 21 17 14 14 14 16 18 19
43 48 49 51 53 50 46 46 47 50 52 52 49 48 50 49 54 56 52 48 46 53 70 78 68 53 42 38 30 26 19 16 19 20 21 19 19 16 15 15 16 18 19
40 46 44 44 46 44 46 46 44 46 50 50 48 50 51 49 51 59 62 60 55 59 75 81 80 69 49 42 39 29 25 19 18 21 22 20 20 17 17 17 16 17 18
39 44 47 46 44 44 41 42 47 49 51 50 48 47 47 47 48 50 57 62 65 61 69 77 83 80 63 49 43 37 30 25 21 21 20 19 18 17 18 18 17 17 18
28 39 44 48 47 46 51 53 51 51 50 52 54 54 52 47 42 42 46 51 59 63 64 67 74 81 69 54 53 44 40 31 26 25 23 21 19 17 17 17 18 18 19
18 22 33 38 42 46 52 54 57 57 53 50 50 57 61 54 51 49 43 44 48 55 59 64 71 79 77 64 59 55 48 41 35 29 25 24 22 17 16 16 17 18 19
13 16 19 26 35 37 40 47 50 56 59 53 53 55 58 62 59 53 53 48 46 48 56 61 69 75 79 74 63 61 55 50 44 42 37 29 26 21 18 17 17 17 18
8 9 12 16 23 28 34 38 41 47 54 55 60 63 62 62 65 66 63 64 59 53 53 57 65 72 76 78 70 62 59 57 54 53 43 39 31 24 23 21 19 18 18
10 9 8 8 12 17 24 27 34 39 44 48 54 60 67 69 61 67 76 74 69 65 66 65 64 69 75 78 74 65 58 56 56 57 52 45 42 33 27 24 22 20 19
14 14 13 12 10 9 14 19 25 33 38 43 47 52 58 62 64 69 74 78 81 78 72 72 74 71 77 79 78 75 72 64 60 59 56 54 47 42 39 33 27 24 22
15 14 14 15 16 13 11 12 19 22 33 40 43 47 51 55 58 66 73 73 79 84 82 77 79 80 82 84 87 85 83 79 75 69 61 59 55 48 45 41 37 31 28
18 17 17 16 15 16 17 14 13 20 25 35 44 48 57 59 61 61 61 68 82 79 85 87 90 91 90 89 87 87 87 85 79 79 73 72 65 56 52 47 47 44 40
22 20 18 18 18 17 17 19 16 14 19 24 40 47 54 63 64 59 57 67 67 81 88 92 96 97 98 98 96 96 93 92 88 81 78 78 73 68 61 55 52 51 49
27 26 23 19 18 18 18 18 19 20 22 19 27 45 55 60 61 60 58 57 67 72 84 92 95 95 94 95 95 94 95 92 91 88 82 76 70 73 68 61 63 60 59
33 32 31 30 25 20 20 19 18 18 22 29 25 32 55 61 67 72 77 76 67 63 79 77 92 95 92 91 92 92 93 90 89 86 81 76 72 69 66 66 62 64 68
39 38 37 37 36 32 28 27 25 23 22 26 32 37 49 68 73 75 73 73 67 69 68 74 81 89 89 91 92 92 92 91 91 90 88 83 75 74 65 65 63 64 66
44 45 45 43 46 44 38 36 35 32 29 31 31 43 57 75 77 71 63 60 66 66 74 66 64 84 85 88 93 93 90 87 89 88 85 81 79 72 67 65 64 66 61
48 48 48 49 46 43 44 41 43 40 39 36 35 36 49 77 81 68 80 76 61 60 59 65 64 67 77 85 91 92 90 84 86 87 84 78 70 68 69 71 72 69 70
56 56 54 53 58 57 61 61 52 50 47 48 45 50 49 63 71 88 97 81 66 66 62 65 69 69 85 89 90 89 89 88 91 91 88 77 71 67 68 69 71 72 68
62 62 64 63 57 58 62 66 68 62 58 64 71 75 75 76 90 84 82 74 77 69 68 70 79 81 82 89 92 92 91 94 92 94 84 76 73 67 75 71 73 73 72
65 65 72 69 62 53 60 65 74 78 85 86 82 81 85 97 88 96 92 87 81 80 77 76 75 78 80 82 87 91 94 95 93 93 89 83 78 69 75 80 77 79 78

GFSSE_prec_cthk_117.txt.gz
RH
40 40 44 45 42 41 39 38 43 48 53 53 47 43 45 40 37 34 30 26 26 30 26 31 39 43 20 14 16 19 30 23 13 13 15 18 21 25 32 37 33 26 23
42 40 42 43 42 41 40 38 41 42 44 47 47 49 46 46 43 38 31 26 27 32 29 37 43 45 29 19 21 19 18 20 20 24 30 35 47 51 52 45 33 23 17
43 39 41 42 43 42 41 42 40 39 41 44 44 47 48 50 45 39 33 32 29 36 34 46 58 44 32 20 20 15 16 24 30 35 36 39 44 48 43 33 24 16 15
41 42 39 46 48 44 42 42 44 45 42 43 41 44 49 45 53 39 35 33 33 43 46 51 59 43 35 25 21 16 18 21 24 29 33 33 29 26 26 19 14 15 16
40 43 44 47 55 55 53 50 50 47 46 46 45 44 42 47 47 41 37 35 34 44 56 54 55 47 37 31 26 20 18 18 21 21 20 21 18 14 13 13 14 16 18
39 42 46 50 52 58 57 54 49 50 52 50 51 48 43 43 44 48 46 41 35 39 54 59 54 47 40 36 33 25 20 17 17 20 20 19 17 14 14 14 15 17 19
39 42 44 49 51 50 52 53 52 49 50 50 48 48 48 47 47 54 55 51 48 43 55 70 66 57 45 42 38 34 25 21 18 17 17 16 16 15 15 16 16 17 19
37 40 43 44 46 48 48 46 46 45 47 46 47 47 47 49 48 48 55 58 60 53 56 72 77 70 57 49 46 39 32 25 22 21 19 17 16 15 15 16 16 17 18
32 39 41 42 42 44 44 43 45 45 44 47 51 49 46 47 47 46 48 53 59 62 60 71 75 78 71 55 53 51 41 31 27 24 21 20 19 17 16 16 16 16 17
18 25 38 42 42 44 43 43 44 44 47 48 50 51 51 52 51 48 45 44 48 56 60 61 67 73 75 62 51 52 52 47 37 29 25 24 22 20 17 16 16 16 17
12 14 17 26 34 38 42 41 44 49 53 54 51 50 51 53 55 56 54 49 46 45 50 56 59 63 72 69 56 52 53 51 47 42 33 28 25 23 20 17 16 17 17
7 9 11 14 18 26 33 35 38 41 45 50 54 53 51 51 56 57 56 60 57 49 47 51 56 60 67 70 66 55 54 55 54 51 45 37 33 28 23 21 19 17 17
10 9 8 8 9 12 18 25 31 35 38 40 46 49 51 53 58 60 59 58 59 62 55 53 55 56 64 68 70 64 55 56 58 56 54 50 41 36 29 26 23 21 20
12 12 11 11 10 9 8 11 18 27 32 36 36 40 46 49 54 59 61 61 65 67 70 66 61 61 65 71 71 71 65 56 54 56 56 55 49 48 43 34 28 25 23
13 13 13 12 12 12 12 10 8 12 21 29 33 38 42 50 58 56 59 58 57 70 76 71 69 68 70 75 79 76 74 67 62 57 61 61 58 52 49 43 40 35 29
15 15 14 14 14 14 13 13 13 11 10 17 27 32 38 47 53 64 68 59 60 65 75 78 77 74 76 78 80 81 82 81 75 69 67 71 69 62 55 49 45 43 40
21 19 17 16 15 16 16 15 15 16 15 12 15 24 35 42 42 51 59 66 67 67 65 68 78 84 82 84 85 89 88 86 85 84 79 73 75 69 65 60 55 51 46
23 23 22 22 19 17 16 16 16 16 16 17 15 16 25 40 46 53 61 70 71 71 60 62 72 82 88 94 94 94 94 92 91 88 88 85 81 78 74 72 66 63 58
29 28 27 26 25 24 21 18 17 17 18 18 18 21 22 26 38 57 61 64 69 68 61 64 70 66 81 93 97 99 99 99 98 98 94 88 86 86 83 74 71 69 63
33 33 32 31 31 31 30 28 25 22 19 19 18 21 30 30 30 44 60 65 68 69 66 63 64 73 73 86 92 95 96 96 98 96 92 91 87 82 78 75 72 68 63
37 36 36 33 32 33 36 38 34 32 30 26 23 22 28 39 40 40 53 64 70 74 79 86 88 75 71 75 90 88 93 91 92 93 92 91 88 83 80 76 72 77 66
40 39 38 38 37 38 38 40 41 38 38 36 33 26 25 30 40 47 49 56 64 78 85 90 89 76 68 69 74 88 88 91 87 90 89 87 86 88 85 84 80 74 69
43 42 42 41 39 38 40 39 40 42 41 42 42 37 31 27 31 51 62 66 63 67 76 84 83 74 75 70 70 73 87 90 85 85 87 87 87 85 82 78 80 74 71
47 47 44 43 43 43 37 42 45 52 55 53 49 49 47 39 36 47 62 85 91 86 75 80 78 72 76 77 75 71 75 82 86 87 90 89 89 88 86 82 76 72 69
50 49 46 48 52 44 42 55 56 58 66 71 68 68 64 58 54 56 61 86 97 95 96 94 93 84 72 70 75 74 78 94 97 97 98 98 94 91 90 83 75 67 70
54 53 48 53 58 58 58 63 70 74 73 75 86 90 75 73 78 79 70 86 90 97 96 97 97 92 87 78 74 77 81 89 95 98 98 92 93 89 89 85 79 73 72

GFSSE_prec_cthk_120.txt.gz
RH
39 41 42 50 45 44 42 43 44 45 51 58 52 47 47 43 41 37 33 27 26 27 26 34 41 27 19 15 15 24 29 17 12 12 13 15 18 22 25 29 25 23 22
40 41 40 43 45 42 42 41 42 44 46 49 47 48 49 48 44 40 36 29 30 28 30 40 45 38 25 23 19 18 24 15 18 23 28 32 41 47 43 38 27 21 16
42 42 41 45 42 44 43 42 43 45 44 45 46 45 50 49 51 44 36 33 33 34 33 46 55 45 33 22 23 14 15 19 27 31 34 41 49 48 39 31 24 18 14
40 43 41 46 47 47 48 44 42 45 45 48 46 44 45 50 48 53 36 34 32 40 39 50 61 50 38 29 27 19 19 21 24 30 33 35 33 29 27 23 16 14 15
40 40 49 49 49 51 52 53 51 45 44 45 48 48 46 44 45 48 38 36 34 38 50 51 58 45 38 34 32 27 23 19 17 17 21 26 26 21 18 13 13 15 17
36 41 44 52 56 50 54 55 59 58 55 50 48 50 50 47 45 45 45 43 43 38 44 56 54 46 40 38 38 33 28 23 19 17 15 15 14 13 13 13 14 15 18
35 39 41 46 54 53 52 53 53 52 51 51 52 50 47 45 47 47 52 53 51 47 46 60 62 57 48 44 43 41 35 27 22 18 17 16 15 14 14 14 14 15 16
35 37 39 43 46 50 51 52 53 53 50 48 49 45 46 46 45 47 48 53 55 55 52 57 69 65 59 49 49 47 45 36 27 22 19 17 16 16 15 15 15 15 15
25 34 39 40 41 44 46 48 46 45 45 47 47 46 49 49 44 45 46 49 53 57 57 58 68 75 72 61 51 51 49 48 42 29 25 21 19 18 16 15 16 15 15
13 17 23 32 39 41 43 43 44 44 44 45 45 47 50 51 51 50 49 47 47 49 56 60 61 69 76 74 58 51 49 48 47 45 35 28 24 20 18 17 16 15 16
8 9 12 15 19 28 33 36 37 39 42 52 51 51 51 52 53 55 54 53 50 50 50 53 60 61 65 66 67 52 50 51 49 48 43 39 35 28 23 19 18 17 16
8 7 7 8 11 13 17 24 29 33 36 39 42 49 52 50 50 51 54 57 55 53 53 54 53 55 60 62 68 64 51 49 51 51 50 48 45 39 34 28 23 19 18
10 10 10 9 8 8 8 11 15 22 28 33 38 40 45 48 49 50 51 57 59 60 58 56 54 54 56 60 67 70 64 52 53 53 54 53 50 47 42 37 31 26 24
12 12 12 11 11 10 10 9 8 9 15 23 28 35 38 42 43 46 48 49 57 61 63 63 65 59 58 61 66 71 72 64 55 55 56 54 54 52 45 44 40 36 30
14 13 13 12 12 11 11 11 11 11 10 9 15 26 35 38 41 44 45 47 52 62 64 62 66 70 66 65 68 73 78 77 71 60 58 62 60 56 55 54 49 42 38
17 18 17 16 15 14 13 13 14 13 13 13 12 11 21 32 38 47 50 49 54 62 62 58 59 71 72 71 70 72 77 83 84 76 68 66 67 63 64 64 59 53 44
23 22 21 21 20 19 17 16 15 15 15 15 15 16 13 18 25 38 49 60 57 57 63 63 63 69 81 77 75 78 82 86 87 85 83 79 76 75 75 70 66 63 57
25 24 25 25 23 23 22 21 21 19 17 16 16 17 17 17 17 25 38 54 68 66 64 67 74 74 78 76 73 78 87 89 94 90 90 91 91 85 81 76 72 72 69
27 27 27 26 24 24 23 24 25 25 24 22 20 19 18 18 20 22 26 38 58 69 67 70 75 79 75 71 68 76 83 89 96 96 96 96 94 94 93 83 83 80 78
30 31 30 30 27 26 26 25 26 28 29 28 27 27 25 22 22 28 30 29 41 58 70 73 74 79 79 75 68 74 72 85 93 96 98 98 97 94 92 93 88 88 79
34 34 34 33 32 30 30 28 27 27 29 29 30 32 32 30 29 28 33 33 33 42 58 74 79 80 77 80 71 70 70 73 75 92 95 94 95 96 95 90 89 87 82
33 36 37 36 36 34 30 30 32 30 32 34 32 35 40 36 33 31 30 37 38 41 50 60 72 82 85 89 86 82 76 69 72 90 91 94 94 92 95 95 92 89 87
31 36 38 38 38 36 32 32 29 33 39 43 47 44 42 43 43 38 31 31 42 47 52 61 68 76 87 93 89 86 83 75 74 76 84 86 89 90 89 93 95 94 93
32 38 41 39 37 39 41 40 40 41 44 51 51 60 64 61 56 53 46 33 37 50 56 63 72 78 85 90 91 89 87 86 78 72 72 80 87 87 88 90 92 93 89
35 40 41 42 41 42 46 48 51 54 60 65 66 71 78 76 76 73 57 49 41 49 57 72 81 86 86 82 86 84 85 86 84 90 80 80 93 92 91 88 92 91 92
37 40 40 44 44 48 50 52 53 58 64 71 79 82 89 87 87 92 86 72 60 51 57 65 97 98 99 89 91 91 91 87 86 88 84 79 82 92 95 94 95 92 91

GFSSE_prec_cthk_123.txt.gz
RH
44 42 40 47 45 44 44 48 49 50 48 52 51 50 49 46 44 40 36 31 29 26 27 36 38 25 22 17 17 23 23 14 11 12 13 15 16 17 20 23 23 21 23
42 43 42 43 47 43 43 43 45 46 46 48 48 47 48 48 47 44 38 33 31 29 32 39 47 40 26 25 21 21 22 13 14 17 20 25 39 40 37 29 24 21 16
42 47 42 45 48 43 45 43 42 45 48 48 48 48 46 47 47 51 46 35 33 33 34 42 54 52 35 29 28 20 17 16 20 25 30 39 50 48 35 28 22 19 14
40 42 43 49 48 48 46 48 46 45 46 48 48 48 47 47 48 46 47 37 35 36 35 44 55 63 41 33 32 24 21 24 26 28 31 35 38 35 29 26 21 13 14
39 39 43 47 51 57 53 50 51 52 50 46 47 48 49 49 47 48 45 38 35 37 41 43 54 61 42 36 37 33 29 24 23 25 27 28 27 24 21 19 13 13 15
36 38 40 52 54 69 64 51 53 56 57 59 54 52 51 48 47 48 49 47 42 42 43 47 52 53 42 40 41 39 36 28 22 19 17 20 18 15 13 12 12 13 15
32 38 39 43 52 58 62 64 56 56 54 53 51 52 51 49 46 46 47 52 52 50 48 51 59 61 50 46 45 45 44 39 28 23 20 17 16 15 13 12 13 13 14
31 35 36 38 42 47 57 54 53 55 56 55 52 50 48 47 45 46 47 47 52 54 53 50 56 68 62 53 48 50 50 46 40 31 25 22 18 17 15 14 14 14 14
19 22 31 34 35 40 43 45 47 48 47 49 50 49 49 48 47 49 47 45 46 50 55 56 55 62 70 67 54 50 51 52 48 42 36 30 25 22 18 17 16 15 14
10 10 14 19 26 31 34 35 39 42 43 43 44 48 53 51 50 52 50 50 49 47 49 52 56 61 67 75 76 58 53 51 49 46 44 40 34 28 24 21 19 17 15
8 7 7 9 12 15 20 24 28 32 34 37 39 43 49 58 56 52 52 54 55 54 52 50 52 57 64 72 75 71 55 49 48 48 47 46 42 36 33 29 23 20 18
9 9 8 8 7 8 10 12 15 18 22 28 34 37 40 48 57 52 51 52 54 57 58 55 55 54 55 59 65 67 66 56 49 49 48 49 48 45 42 36 32 28 24
11 11 10 10 10 10 9 8 8 9 12 16 22 27 34 37 39 47 52 55 52 54 57 61 60 57 56 55 55 61 69 69 57 50 52 51 51 51 49 46 40 36 33
12 12 12 12 12 11 10 10 10 9 9 9 9 15 21 26 33 37 43 48 52 54 54 58 62 63 61 60 59 58 62 72 72 58 53 54 54 54 53 52 46 43 39
14 14 14 15 14 14 13 12 11 11 11 11 11 12 11 15 22 29 33 38 49 49 50 52 60 65 66 68 68 65 64 67 74 74 64 60 58 58 57 60 53 50 48
17 18 18 18 17 18 17 17 16 15 14 13 14 14 14 14 14 21 27 32 36 45 57 53 56 65 69 68 67 70 69 71 74 80 81 73 68 65 65 62 65 59 57
22 23 23 23 22 22 21 20 20 20 20 19 18 17 17 17 17 16 17 23 30 40 52 58 60 65 67 70 71 77 77 75 75 78 84 88 84 78 72 71 72 71 69
27 26 25 24 23 22 20 20 19 19 20 22 23 22 20 20 20 19 19 18 22 32 46 55 66 69 71 75 76 79 85 83 80 79 84 89 92 86 83 82 80 78 80
28 26 26 25 24 23 22 21 21 21 22 23 24 23 24 23 24 24 23 22 23 26 34 49 62 78 72 78 81 83 85 85 84 81 82 91 93 96 93 91 92 88 85
26 26 26 26 26 25 24 23 22 21 21 22 23 23 24 25 27 26 25 26 29 33 31 37 49 69 78 80 84 89 89 85 79 76 77 85 81 92 97 96 97 96 95
26 27 26 24 24 26 24 21 20 21 23 25 24 24 25 26 27 27 29 29 27 29 37 36 42 55 69 78 90 90 90 92 85 78 75 74 71 87 94 98 99 98 96
27 27 26 26 27 28 25 24 26 26 27 28 29 32 36 37 36 33 33 34 38 32 29 41 43 49 56 69 81 92 91 87 83 79 67 67 67 77 84 91 97 97 98
27 27 28 28 29 30 29 32 34 35 34 32 32 34 37 44 47 48 51 51 45 48 38 38 49 52 55 60 75 88 92 88 86 80 73 70 70 71 76 80 91 94 95
25 26 29 30 32 31 32 35 36 39 41 41 42 47 52 52 56 62 64 72 67 55 53 45 47 53 54 58 68 74 85 85 86 84 83 80 79 76 74 82 87 97 99
24 27 30 32 33 34 36 38 38 42 45 46 49 55 60 62 67 70 70 85 85 74 61 53 46 52 51 64 68 86 82 80 93 94 92 86 85 85 86 87 85 91 95
23 27 30 33 35 37 37 41 42 42 45 49 53 58 65 68 72 80 81 82 90 90 84 65 53 55 57 59 69 75 80 80 86 98 90 90 90 89 91 89 87 94 92

GFSSE_prec_cthk_126.txt.gz
RH
45 44 41 49 48 42 44 45 46 48 50 47 49 47 46 48 49 45 40 34 32 29 30 35 38 29 25 23 21 23 22 12 11 12 14 17 19 19 19 20 21 24 22
42 46 44 48 47 51 45 44 42 44 45 47 46 48 49 46 46 47 48 42 33 32 32 40 48 46 30 27 24 23 23 13 13 13 14 20 28 26 30 26 22 20 21
41 44 45 45 49 46 46 44 44 41 46 49 49 49 49 45 44 46 48 45 37 37 34 40 50 65 46 33 33 26 21 17 20 25 29 36 39 44 33 30 24 20 14
39 40 41 43 51 53 46 46 46 46 45 47 48 48 46 47 48 45 45 42 37 37 36 37 47 62 61 40 37 36 28 23 26 29 32 38 41 37 31 27 24 17 13
38 37 36 44 46 51 54 58 51 50 49 50 49 47 48 49 47 46 47 46 42 37 39 43 46 55 61 42 38 40 36 33 30 30 29 32 31 27 23 22 19 13 14
35 35 37 40 48 51 58 69 69 65 56 55 58 61 56 52 51 47 46 48 49 47 46 46 53 56 61 44 42 43 41 40 33 27 24 24 23 22 18 15 13 13 14
30 31 35 37 40 48 55 58 62 65 64 61 59 57 54 53 50 47 46 48 47 49 49 49 51 58 64 53 44 47 48 45 40 33 26 21 20 17 16 14 13 14 14
23 29 31 31 34 39 43 47 53 53 52 57 57 55 53 53 53 51 47 46 48 46 48 51 51 53 62 66 54 48 51 52 48 43 37 29 23 20 18 16 16 15 14
14 14 19 25 27 30 31 37 40 42 44 46 47 45 49 48 49 49 53 51 50 46 45 50 53 54 56 67 70 58 52 53 53 50 46 42 34 27 22 20 18 17 16
10 9 9 11 15 20 25 27 29 29 30 35 38 41 41 39 40 47 50 50 53 51 53 50 51 54 54 59 71 76 69 59 56 53 48 47 45 39 32 26 22 20 18
10 9 9 8 8 9 10 12 16 20 23 26 30 33 35 36 38 42 46 49 51 52 53 56 57 55 54 57 65 76 81 73 62 55 49 47 47 46 41 36 30 26 23
9 9 10 10 9 9 9 8 8 8 9 13 17 21 26 30 34 36 41 49 54 48 49 52 55 58 60 57 58 62 68 72 68 59 51 48 48 47 48 44 41 36 30
11 11 11 11 11 11 11 10 10 9 9 9 8 9 13 19 23 28 32 34 42 48 51 54 53 54 56 59 59 59 57 61 75 71 62 54 51 50 51 51 47 44 39
12 13 13 13 13 13 12 12 12 11 10 10 11 11 11 10 11 18 22 26 30 36 44 49 52 53 54 57 61 61 62 59 58 69 75 66 59 55 54 55 56 52 48
14 14 15 16 16 15 15 15 15 15 14 13 12 12 12 12 11 11 12 18 24 29 35 41 47 53 53 55 64 69 69 64 65 62 68 76 69 62 60 59 59 59 53
17 18 18 19 19 19 19 19 19 19 19 19 18 18 17 15 15 14 14 14 13 18 27 36 37 43 48 57 62 71 78 79 71 68 70 76 79 72 68 67 63 65 71
21 22 22 22 22 22 21 21 19 18 18 17 18 19 19 19 18 18 18 18 18 18 17 21 29 40 45 52 57 71 75 78 78 78 74 74 80 80 78 76 77 74 70
25 25 25 24 23 22 21 20 20 19 18 18 19 19 19 18 18 18 18 18 18 19 20 22 25 28 41 53 57 68 75 78 80 82 84 81 80 84 85 84 86 84 82
26 25 24 23 22 21 19 19 19 19 19 18 18 18 18 18 19 19 20 21 22 21 20 20 22 29 33 45 60 66 73 80 82 84 90 88 88 88 90 90 88 88 86
26 24 23 22 22 21 19 18 18 18 19 20 20 20 21 21 20 20 21 22 22 23 23 25 24 25 33 38 51 66 75 82 88 85 87 88 90 91 91 90 92 89 90
23 22 21 22 22 21 20 19 19 20 23 24 25 25 25 25 26 27 28 28 29 29 29 30 30 28 30 38 52 57 75 87 88 91 90 86 82 84 81 83 83 77 86
20 21 22 22 22 23 23 24 24 27 29 31 32 32 33 34 34 34 35 37 40 43 45 46 50 41 36 40 55 64 69 78 80 84 91 88 87 87 80 74 73 73 73
21 21 22 23 24 26 27 28 30 30 32 31 33 34 38 40 41 42 44 43 50 53 50 54 63 62 50 51 58 67 73 74 77 77 79 84 87 86 85 81 74 73 75
20 20 21 24 26 28 30 30 30 31 34 35 35 37 40 45 47 48 50 53 59 62 65 66 71 65 71 59 73 62 69 78 81 75 78 80 85 87 85 85 84 84 82
19 20 22 25 28 30 31 31 31 33 36 36 36 38 40 45 51 55 58 61 65 73 76 83 85 83 79 74 73 77 63 68 82 76 78 88 78 84 85 87 89 90 90
19 20 22 24 26 29 30 33 35 36 38 38 39 39 40 42 44 49 56 64 69 78 85 91 95 90 87 78 78 82 72 66 66 72 86 88 79 82 88 94 98 97 96

GFSSE_prec_cthk_129.txt.gz
RH
45 44 44 53 50 45 46 48 49 43 44 47 50 44 44 44 43 44 45 44 35 30 31 37 38 36 28 25 23 23 22 12 12 15 16 32 23 23 20 20 20 22 20
42 43 45 47 49 50 47 47 41 41 44 44 45 46 48 47 43 42 42 44 39 35 33 38 45 53 43 32 32 26 26 14 13 13 14 16 18 21 27 25 23 24 23
41 43 45 45 44 48 49 46 43 42 41 44 50 48 47 46 44 44 42 43 38 36 34 37 43 57 63 44 37 36 28 20 19 20 23 32 39 42 35 28 24 21 15
38 42 41 42 42 46 50 46 49 47 46 46 44 45 50 47 45 44 43 45 41 39 35 34 38 47 62 64 39 39 34 30 27 29 31 39 49 41 33 29 25 22 14
36 37 35 40 45 45 47 49 52 56 58 55 51 50 53 56 58 52 46 45 44 42 40 43 46 51 58 69 40 39 39 38 38 34 31 33 35 33 27 23 22 20 14
33 32 35 38 42 46 49 55 63 63 62 61 62 62 59 58 60 62 57 48 47 48 46 44 45 52 56 63 52 42 44 42 43 40 34 28 26 24 23 20 16 13 14
28 29 29 32 37 42 45 48 51 53 55 63 63 62 57 57 57 58 58 57 51 50 46 45 45 47 55 65 62 50 47 48 47 43 38 28 23 21 17 15 14 13 14
20 22 25 27 29 30 33 38 43 46 48 48 48 50 53 52 49 50 50 50 52 52 52 49 48 47 48 55 68 69 54 50 51 50 47 43 33 25 20 18 16 15 15
13 11 10 14 19 22 25 27 28 30 33 37 40 42 43 41 41 42 43 45 47 47 52 55 52 53 53 51 55 71 75 60 54 52 51 49 46 42 31 23 20 18 17
10 9 8 8 8 10 13 16 19 21 23 25 26 29 32 34 35 35 33 34 36 41 48 52 52 51 53 55 53 56 75 80 71 64 55 51 51 48 45 38 30 23 21
10 10 10 9 9 8 8 8 7 8 8 11 14 17 19 23 27 30 31 33 36 39 39 43 46 47 51 52 56 57 61 68 80 80 72 62 53 51 49 45 37 33 28
10 10 10 10 10 10 10 10 9 9 9 8 8 7 8 11 15 19 24 28 31 33 39 42 42 43 47 50 52 55 59 60 66 74 77 69 63 52 50 50 49 40 37
11 11 12 12 12 12 12 11 11 11 11 10 10 10 9 9 9 10 13 18 24 29 32 36 41 42 44 48 52 52 52 55 60 61 71 76 66 62 54 53 53 53 46
13 13 13 14 14 14 14 14 14 14 13 13 12 12 11 10 10 11 10 10 12 16 21 26 33 42 45 48 51 52 55 59 58 58 59 63 74 70 64 58 56 58 57
14 15 15 16 16 16 16 17 17 17 16 17 17 17 17 16 16 14 14 13 13 13 14 17 19 23 31 38 47 51 54 58 64 67 64 62 65 73 74 69 59 59 61
16 16 18 19 19 20 20 20 20 19 18 18 17 16 17 17 17 16 17 16 16 16 16 16 17 18 21 25 30 39 51 56 62 69 75 72 67 69 73 76 73 65 64
17 19 21 21 21 22 21 20 19 18 18 17 17 17 17 17 17 17 16 16 15 15 15 15 14 15 16 21 27 31 32 47 56 67 77 79 82 73 75 80 78 75 73
21 22 23 22 21 20 19 19 19 17 16 16 16 16 16 15 15 15 15 15 15 16 16 17 18 18 17 17 17 26 34 33 50 62 71 80 81 83 76 79 83 81 82
24 24 23 21 20 20 19 18 17 16 16 15 16 18 18 19 19 19 19 18 18 19 19 20 19 19 20 20 20 20 24 37 47 61 67 76 83 84 81 82 86 89 86
26 23 21 20 20 19 19 19 18 18 18 19 20 21 22 23 22 22 23 24 24 24 25 26 26 26 27 29 26 24 28 29 44 60 65 70 78 84 88 84 88 92 94
22 20 19 20 20 20 19 19 20 20 22 23 24 25 25 25 26 28 28 29 30 30 32 32 33 33 34 37 36 32 32 36 35 51 70 73 72 80 88 86 95 94 93
19 19 20 20 20 20 20 21 22 23 24 25 27 28 28 30 30 31 34 35 35 37 39 40 42 43 43 45 52 58 54 50 45 48 65 80 78 80 84 91 92 89 92
19 19 20 19 19 20 21 24 25 26 25 27 27 29 30 32 34 37 38 40 42 43 44 49 51 54 55 56 63 74 77 77 61 55 60 87 88 83 91 94 91 91 89
19 19 19 19 20 21 23 25 26 26 28 27 28 29 31 34 36 40 43 45 46 46 48 51 57 63 66 69 70 75 79 93 87 76 69 70 75 92 86 86 89 91 90
19 18 17 17 18 19 22 24 28 29 29 31 32 31 31 32 34 35 36 38 41 47 51 52 57 67 74 77 85 84 84 97 97 86 80 78 78 82 89 84 81 85 89
16 15 16 17 18 21 23 27 31 31 31 28 23 19 18 19 20 23 23 20 21 25 30 38 50 60 76 87 81 91 94 90 98 94 78 70 69 74 81 86 88 91 88